Time,TemperatureF,DewpointF,PressureIn,WindDirection,WindDirectionDegrees,WindSpeedMPH,WindSpeedGustMPH,Humidity,HourlyPrecipIn,Conditions,Clouds,dailyrainin,SoftwareType,DateUTC
2013-11-29 00:00:00,23.2,0.7,30.22,NNE,22,0.0,0.0,37,0.00,CLR,,0.00,WeatherDisplay:10.37,2013-11-29 05:00:00,
2013-11-29 00:01:00,23.2,0.7,30.22,NNE,22,0.0,0.0,37,0.00,CLR,,0.00,WeatherDisplay:10.37,2013-11-29 05:01:00,
2013-11-29 00:02:00,23.2,0.1,30.20,NNE,22,0.0,0.0,36,0.00,CLR,,0.00,WeatherDisplay:10.37,2013-11-29 05:02:00,
2013-11-29 00:06:00,23.2,-0.5,30.16,NNE,22,0.0,0.0,35,0.00,CLR,,0.00,WeatherDisplay:10.37,2013-11-29 05:06:00,
2013-11-29 00:07:00,23.2,-0.5,30.16,NNE,22,0.0,0.0,35,0.00,CLR,,0.00,WeatherDisplay:10.37,2013-11-29 05:07:00,
2013-11-29 00:09:00,23.2,-1.1,30.17,NNE,22,0.0,0.0,34,0.00,CLR,,0.00,WeatherDisplay:10.37,2013-11-29 05:09:00,
2013-11-29 00:10:00,23.2,-1.1,30.17,NNE,22,0.0,0.0,34,0.00,CLR,,0.00,WeatherDisplay:10.37,2013-11-29 05:10:00,
2013-11-29 00:11:00,23.2,-1.1,30.16,NNE,22,0.0,0.0,34,0.00,CLR,,0.00,WeatherDisplay:10.37,2013-11-29 05:11:00,
2013-11-29 00:12:00,23.2,-1.1,30.16,NNE,22,0.0,0.0,34,0.00,CLR,,0.00,WeatherDisplay:10.37,2013-11-29 05:12:00,
2013-11-29 00:13:00,23.2,-1.1,30.15,NNE,22,0.0,0.0,34,0.00,CLR,,0.00,WeatherDisplay:10.37,2013-11-29 05:13:00,
2013-11-29 00:17:00,23.2,-1.1,30.19,NNW,337,0.0,0.0,34,0.00,CLR,,0.00,WeatherDisplay:10.37,2013-11-29 05:17:00,
2013-11-29 00:18:00,23.2,-1.1,30.19,NNW,337,0.0,0.0,34,0.00,CLR,,0.00,WeatherDisplay:10.37,2013-11-29 05:18:00,
2013-11-29 00:19:00,23.2,-1.1,30.20,NNW,337,0.0,0.0,34,0.00,CLR,,0.00,WeatherDisplay:10.37,2013-11-29 05:19:00,
2013-11-29 00:20:00,23.2,-1.1,30.20,NNW,337,0.0,0.0,34,0.00,CLR,,0.00,WeatherDisplay:10.37,2013-11-29 05:20:00,
2013-11-29 00:22:00,23.2,-0.5,30.20,NNW,337,0.0,0.0,35,0.00,CLR,,0.00,WeatherDisplay:10.37,2013-11-29 05:22:00,
2013-11-29 00:23:00,23.2,-0.5,30.20,NNW,337,0.0,0.0,35,0.00,CLR,,0.00,WeatherDisplay:10.37,2013-11-29 05:23:00,
2013-11-29 00:25:00,23.2,-0.5,30.17,NNW,337,0.0,0.0,35,0.00,CLR,,0.00,WeatherDisplay:10.37,2013-11-29 05:25:00,
2013-11-29 00:27:00,23.2,-0.5,30.17,NNW,337,0.0,0.0,35,0.00,CLR,,0.00,WeatherDisplay:10.37,2013-11-29 05:27:00,
2013-11-29 00:29:00,23.2,-0.5,30.17,NNW,337,0.0,0.0,35,0.00,CLR,,0.00,WeatherDisplay:10.37,2013-11-29 05:29:00,
2013-11-29 00:31:00,23.2,0.1,30.18,NNW,337,0.0,0.0,36,0.00,CLR,,0.00,WeatherDisplay:10.37,2013-11-29 05:31:00,
2013-11-29 00:32:00,23.2,0.1,30.18,NNW,337,0.0,0.0,36,0.00,CLR,,0.00,WeatherDisplay:10.37,2013-11-29 05:32:00,
2013-11-29 00:33:00,23.2,0.1,30.18,NNW,337,0.0,0.0,36,0.00,CLR,,0.00,WeatherDisplay:10.37,2013-11-29 05:33:00,
2013-11-29 00:35:00,23.2,0.1,30.13,NNW,337,0.0,0.0,36,0.00,CLR,,0.00,WeatherDisplay:10.37,2013-11-29 05:35:00,
2013-11-29 00:36:00,23.2,0.1,30.16,NNW,337,0.0,0.0,36,0.00,CLR,,0.00,WeatherDisplay:10.37,2013-11-29 05:36:00,
2013-11-29 00:37:00,23.2,0.1,30.16,NNW,337,0.0,0.0,36,0.00,CLR,,0.00,WeatherDisplay:10.37,2013-11-29 05:37:00,
2013-11-29 00:38:00,23.2,0.1,30.16,NNW,337,0.0,0.0,36,0.00,CLR,,0.00,WeatherDisplay:10.37,2013-11-29 05:38:00,
2013-11-29 00:39:00,23.2,0.1,30.13,NNW,337,0.0,0.0,36,0.00,CLR,,0.00,WeatherDisplay:10.37,2013-11-29 05:39:00,
2013-11-29 00:41:00,23.2,0.7,30.17,NNW,337,0.0,0.0,37,0.00,CLR,,0.00,WeatherDisplay:10.37,2013-11-29 05:41:00,
2013-11-29 00:42:00,23.2,0.7,30.17,NNW,337,0.0,0.0,37,0.00,CLR,,0.00,WeatherDisplay:10.37,2013-11-29 05:42:00,
2013-11-29 00:43:00,23.2,0.7,30.17,NNW,337,0.0,0.0,37,0.00,CLR,,0.00,WeatherDisplay:10.37,2013-11-29 05:43:00,
2013-11-29 00:46:00,23.2,0.7,30.17,NNW,337,0.0,0.0,37,0.00,CLR,,0.00,WeatherDisplay:10.37,2013-11-29 05:46:00,
2013-11-29 00:47:00,23.0,0.6,30.15,NNW,337,0.0,0.0,37,0.00,CLR,,0.00,WeatherDisplay:10.37,2013-11-29 05:47:00,
2013-11-29 00:48:00,23.0,0.6,30.20,NNW,337,0.0,0.0,37,0.00,CLR,,0.00,WeatherDisplay:10.37,2013-11-29 05:48:00,
2013-11-29 00:50:00,23.2,0.1,30.17,NNW,337,0.0,0.0,36,0.00,CLR,,0.00,WeatherDisplay:10.37,2013-11-29 05:50:00,
2013-11-29 00:52:00,23.0,0.0,30.25,NNW,337,0.0,0.0,36,0.00,CLR,,0.00,WeatherDisplay:10.37,2013-11-29 05:52:00,
2013-11-29 00:53:00,23.0,0.0,30.25,NNW,337,0.0,0.0,36,0.00,CLR,,0.00,WeatherDisplay:10.37,2013-11-29 05:53:00,
2013-11-29 00:54:00,23.0,-0.6,30.25,NNW,337,0.0,0.0,35,0.00,CLR,,0.00,WeatherDisplay:10.37,2013-11-29 05:54:00,
2013-11-29 00:56:00,23.0,-0.6,30.17,NNW,337,0.0,0.0,35,0.00,CLR,,0.00,WeatherDisplay:10.37,2013-11-29 05:56:00,
2013-11-29 00:58:00,23.0,-0.6,30.22,NNW,337,0.0,0.0,35,0.00,CLR,,0.00,WeatherDisplay:10.37,2013-11-29 05:58:00,
2013-11-29 00:59:00,23.0,-0.6,30.22,NNW,337,0.0,0.0,35,0.00,CLR,,0.00,WeatherDisplay:10.37,2013-11-29 05:59:00,
2013-11-29 01:01:00,23.0,-0.6,30.19,NNW,337,0.0,0.0,35,0.00,CLR,,0.00,WeatherDisplay:10.37,2013-11-29 06:01:00,
2013-11-29 01:02:00,23.0,-0.6,30.23,NNW,337,0.0,0.0,35,0.00,CLR,,0.00,WeatherDisplay:10.37,2013-11-29 06:02:00,
2013-11-29 01:03:00,23.0,-0.6,30.23,NNW,337,0.0,0.0,35,0.00,CLR,,0.00,WeatherDisplay:10.37,2013-11-29 06:03:00,
2013-11-29 01:05:00,23.0,-0.6,30.18,NNW,337,0.0,0.0,35,0.00,CLR,,0.00,WeatherDisplay:10.37,2013-11-29 06:05:00,
2013-11-29 01:07:00,23.0,-0.6,30.19,NNW,337,0.0,0.0,35,0.00,CLR,,0.00,WeatherDisplay:10.37,2013-11-29 06:07:00,
2013-11-29 01:09:00,26.4,2.4,30.22,NNW,337,0.0,0.0,35,0.00,CLR,,0.00,WeatherDisplay:10.37,2013-11-29 06:09:00,
2013-11-29 01:10:00,26.4,2.4,30.21,NNW,337,0.0,0.0,35,0.00,CLR,,0.00,WeatherDisplay:10.37,2013-11-29 06:10:00,
2013-11-29 01:12:00,23.0,-0.6,30.18,NNW,337,0.0,0.0,35,0.00,CLR,,0.00,WeatherDisplay:10.37,2013-11-29 06:12:00,
2013-11-29 01:13:00,23.0,-0.6,30.23,NNW,337,0.0,0.0,35,0.00,CLR,,0.00,WeatherDisplay:10.37,2013-11-29 06:13:00,
2013-11-29 01:15:00,23.0,-0.6,30.23,NNW,337,0.0,0.0,35,0.00,CLR,,0.00,WeatherDisplay:10.37,2013-11-29 06:15:00,
2013-11-29 01:17:00,23.0,0.0,30.19,NNW,337,0.0,0.0,36,0.00,CLR,,0.00,WeatherDisplay:10.37,2013-11-29 06:17:00,
2013-11-29 01:19:00,23.0,0.0,30.13,NNW,337,0.0,0.0,36,0.00,CLR,,0.00,WeatherDisplay:10.37,2013-11-29 06:19:00,
2013-11-29 01:20:00,23.0,0.0,30.13,NNW,337,0.0,0.0,36,0.00,CLR,,0.00,WeatherDisplay:10.37,2013-11-29 06:20:00,
2013-11-29 01:21:00,23.0,0.0,30.25,NNW,337,0.0,0.0,36,0.00,CLR,,0.00,WeatherDisplay:10.37,2013-11-29 06:21:00,
2013-11-29 01:22:00,23.0,0.0,30.22,NNW,337,0.0,0.0,36,0.00,CLR,,0.00,WeatherDisplay:10.37,2013-11-29 06:22:00,
2013-11-29 01:24:00,23.0,0.0,30.15,NNW,337,0.0,0.0,36,0.00,CLR,,0.00,WeatherDisplay:10.37,2013-11-29 06:24:00,
2013-11-29 01:26:00,23.0,0.0,30.15,NW,315,0.0,0.0,36,0.00,CLR,,0.00,WeatherDisplay:10.37,2013-11-29 06:26:00,
2013-11-29 01:27:00,23.0,0.0,30.16,NW,315,0.0,0.0,36,0.00,CLR,,0.00,WeatherDisplay:10.37,2013-11-29 06:27:00,
2013-11-29 01:28:00,23.0,0.0,30.16,NW,315,0.0,0.0,36,0.00,CLR,,0.00,WeatherDisplay:10.37,2013-11-29 06:28:00,
2013-11-29 01:30:00,23.0,0.0,30.20,NW,315,0.0,0.0,36,0.00,CLR,,0.00,WeatherDisplay:10.37,2013-11-29 06:30:00,
2013-11-29 01:31:00,23.0,0.0,30.19,NW,315,0.0,0.0,36,0.00,CLR,,0.00,WeatherDisplay:10.37,2013-11-29 06:31:00,
2013-11-29 01:33:00,26.4,3.0,30.19,WNW,292,0.0,0.0,36,0.00,CLR,,0.00,WeatherDisplay:10.37,2013-11-29 06:33:00,
2013-11-29 01:34:00,23.0,0.0,30.14,WNW,292,0.0,0.0,36,0.00,CLR,,0.00,WeatherDisplay:10.37,2013-11-29 06:34:00,
2013-11-29 01:35:00,23.0,0.0,30.14,WNW,292,0.0,0.0,36,0.00,CLR,,0.00,WeatherDisplay:10.37,2013-11-29 06:35:00,
2013-11-29 01:36:00,23.0,0.0,30.22,WNW,292,0.0,0.0,36,0.00,CLR,,0.00,WeatherDisplay:10.37,2013-11-29 06:36:00,
2013-11-29 01:37:00,23.0,0.0,30.24,SE,135,0.0,0.0,36,0.00,CLR,,0.00,WeatherDisplay:10.37,2013-11-29 06:37:00,
2013-11-29 01:38:00,23.0,0.0,30.24,SE,135,0.0,0.0,36,0.00,CLR,,0.00,WeatherDisplay:10.37,2013-11-29 06:38:00,
2013-11-29 01:39:00,23.0,0.0,30.21,SE,135,0.0,0.0,36,0.00,CLR,,0.00,WeatherDisplay:10.37,2013-11-29 06:39:00,
2013-11-29 01:42:00,23.0,0.0,30.18,SE,135,0.0,0.0,36,0.00,CLR,,0.00,WeatherDisplay:10.37,2013-11-29 06:42:00,
2013-11-29 01:43:00,23.0,0.0,30.18,SE,135,0.0,0.0,36,0.00,CLR,,0.00,WeatherDisplay:10.37,2013-11-29 06:43:00,
2013-11-29 01:44:00,23.0,0.0,30.22,SE,135,0.0,0.0,36,0.00,CLR,,0.00,WeatherDisplay:10.37,2013-11-29 06:44:00,
2013-11-29 01:45:00,23.0,0.0,30.21,SE,135,0.0,0.0,36,0.00,CLR,,0.00,WeatherDisplay:10.37,2013-11-29 06:45:00,
2013-11-29 01:48:00,23.0,0.0,30.17,SE,135,0.0,0.0,36,0.00,CLR,,0.00,WeatherDisplay:10.37,2013-11-29 06:48:00,
2013-11-29 01:49:00,23.0,0.0,30.17,SE,135,0.0,0.0,36,0.00,CLR,,0.00,WeatherDisplay:10.37,2013-11-29 06:49:00,
2013-11-29 01:52:00,23.0,-0.6,30.19,SE,135,0.0,0.0,35,0.00,CLR,,0.00,WeatherDisplay:10.37,2013-11-29 06:52:00,
2013-11-29 01:53:00,23.0,0.0,30.23,SE,135,0.0,0.0,36,0.00,CLR,,0.00,WeatherDisplay:10.37,2013-11-29 06:53:00,
2013-11-29 01:54:00,23.0,0.0,30.23,SE,135,0.0,0.0,36,0.00,CLR,,0.00,WeatherDisplay:10.37,2013-11-29 06:54:00,
2013-11-29 01:55:00,23.0,0.0,30.19,SE,135,0.0,0.0,36,0.00,CLR,,0.00,WeatherDisplay:10.37,2013-11-29 06:55:00,
2013-11-29 01:56:00,23.0,0.0,30.19,SE,135,0.0,0.0,36,0.00,CLR,,0.00,WeatherDisplay:10.37,2013-11-29 06:56:00,
2013-11-29 01:57:00,23.0,0.0,30.14,SE,135,0.0,0.0,36,0.00,CLR,,0.00,WeatherDisplay:10.37,2013-11-29 06:57:00,
2013-11-29 02:00:00,23.0,0.0,30.25,SE,135,0.0,0.0,36,0.00,CLR,,0.00,WeatherDisplay:10.37,2013-11-29 07:00:00,
2013-11-29 02:01:00,23.0,-0.6,30.15,SE,135,0.0,0.0,35,0.00,CLR,,0.00,WeatherDisplay:10.37,2013-11-29 07:01:00,
2013-11-29 02:03:00,26.4,2.4,30.15,SE,135,0.0,0.0,35,0.00,CLR,,0.00,WeatherDisplay:10.37,2013-11-29 07:03:00,
2013-11-29 02:05:00,26.4,3.0,30.23,SE,135,0.0,0.0,36,0.00,CLR,,0.00,WeatherDisplay:10.37,2013-11-29 07:05:00,
2013-11-29 02:06:00,26.4,3.0,30.23,SE,135,0.0,0.0,36,0.00,CLR,,0.00,WeatherDisplay:10.37,2013-11-29 07:06:00,
2013-11-29 02:08:00,26.4,3.0,30.17,SE,135,0.0,0.0,36,0.00,CLR,,0.00,WeatherDisplay:10.37,2013-11-29 07:08:00,
2013-11-29 02:09:00,26.4,3.0,30.23,SE,135,0.0,0.0,36,0.00,CLR,,0.00,WeatherDisplay:10.37,2013-11-29 07:09:00,
2013-11-29 02:11:00,26.4,3.6,30.16,SE,135,0.0,0.0,37,0.00,CLR,,0.00,WeatherDisplay:10.37,2013-11-29 07:11:00,
2013-11-29 02:12:00,26.4,3.6,30.16,SE,135,0.0,0.0,37,0.00,CLR,,0.00,WeatherDisplay:10.37,2013-11-29 07:12:00,
2013-11-29 02:13:00,26.4,3.6,30.25,SE,135,0.0,0.0,37,0.00,CLR,,0.00,WeatherDisplay:10.37,2013-11-29 07:13:00,
2013-11-29 02:16:00,23.0,0.0,30.14,SSE,157,0.0,0.0,36,0.00,CLR,,0.00,WeatherDisplay:10.37,2013-11-29 07:16:00,
2013-11-29 02:17:00,23.0,0.0,30.14,WSW,247,0.0,0.0,36,0.00,CLR,,0.00,WeatherDisplay:10.37,2013-11-29 07:17:00,
2013-11-29 02:18:00,23.0,0.0,30.20,WSW,247,0.0,0.0,36,0.00,CLR,,0.00,WeatherDisplay:10.37,2013-11-29 07:18:00,
2013-11-29 02:19:00,23.2,0.1,30.20,WSW,247,0.0,0.0,36,0.00,CLR,,0.00,WeatherDisplay:10.37,2013-11-29 07:19:00,
2013-11-29 02:23:00,23.2,0.1,30.20,WSW,247,0.0,0.0,36,0.00,CLR,,0.00,WeatherDisplay:10.37,2013-11-29 07:23:00,
2013-11-29 02:25:00,23.2,0.1,30.20,WSW,247,0.0,0.0,36,0.00,CLR,,0.00,WeatherDisplay:10.37,2013-11-29 07:25:00,
2013-11-29 02:28:00,23.4,0.3,30.20,WSW,247,0.0,0.0,36,0.00,CLR,,0.00,WeatherDisplay:10.37,2013-11-29 07:28:00,
2013-11-29 02:30:00,23.4,0.3,30.20,WSW,247,0.0,0.0,36,0.00,CLR,,0.00,WeatherDisplay:10.37,2013-11-29 07:30:00,
2013-11-29 02:33:00,23.5,1.0,30.25,WSW,247,0.0,0.0,37,0.00,CLR,,0.00,WeatherDisplay:10.37,2013-11-29 07:33:00,
2013-11-29 02:35:00,23.5,1.0,30.21,WSW,247,0.0,0.0,37,0.00,CLR,,0.00,WeatherDisplay:10.37,2013-11-29 07:35:00,
2013-11-29 02:36:00,23.5,0.5,30.18,WSW,247,0.0,0.0,36,0.00,CLR,,0.00,WeatherDisplay:10.37,2013-11-29 07:36:00,
2013-11-29 02:38:00,23.7,0.6,30.18,WSW,247,0.0,0.0,36,0.00,CLR,,0.00,WeatherDisplay:10.37,2013-11-29 07:38:00,
2013-11-29 02:40:00,23.7,0.6,30.28,WSW,247,0.0,0.0,36,0.00,CLR,,0.00,WeatherDisplay:10.37,2013-11-29 07:40:00,
2013-11-29 02:42:00,23.9,0.8,30.28,WSW,247,0.0,0.0,36,0.00,CLR,,0.00,WeatherDisplay:10.37,2013-11-29 07:42:00,
2013-11-29 02:43:00,23.9,0.8,30.23,WSW,247,0.0,0.0,36,0.00,CLR,,0.00,WeatherDisplay:10.37,2013-11-29 07:43:00,
2013-11-29 02:44:00,24.1,0.9,30.23,WSW,247,0.0,0.0,36,0.00,CLR,,0.00,WeatherDisplay:10.37,2013-11-29 07:44:00,
2013-11-29 02:45:00,24.1,0.9,30.22,WSW,247,0.0,0.0,36,0.00,CLR,,0.00,WeatherDisplay:10.37,2013-11-29 07:45:00,
2013-11-29 02:46:00,24.1,0.9,30.23,WSW,247,0.0,0.0,36,0.00,CLR,,0.00,WeatherDisplay:10.37,2013-11-29 07:46:00,
2013-11-29 02:47:00,24.3,1.1,30.23,WSW,247,0.0,0.0,36,0.00,CLR,,0.00,WeatherDisplay:10.37,2013-11-29 07:47:00,
2013-11-29 02:49:00,24.3,1.7,30.19,WSW,247,0.0,0.0,37,0.00,CLR,,0.00,WeatherDisplay:10.37,2013-11-29 07:49:00,
2013-11-29 02:50:00,24.6,2.0,30.19,WSW,247,0.0,0.0,37,0.00,CLR,,0.00,WeatherDisplay:10.37,2013-11-29 07:50:00,
2013-11-29 02:51:00,24.6,2.0,30.19,WSW,247,0.0,0.0,37,0.00,CLR,,0.00,WeatherDisplay:10.37,2013-11-29 07:51:00,
2013-11-29 02:52:00,24.6,2.0,30.19,WSW,247,0.0,0.0,37,0.00,CLR,,0.00,WeatherDisplay:10.37,2013-11-29 07:52:00,
2013-11-29 02:53:00,21.4,-0.9,30.19,WSW,247,0.0,0.0,37,0.00,CLR,,0.00,WeatherDisplay:10.37,2013-11-29 07:53:00,
2013-11-29 02:54:00,21.4,-0.9,30.19,WSW,247,0.0,0.0,37,0.00,CLR,,0.00,WeatherDisplay:10.37,2013-11-29 07:54:00,
2013-11-29 02:56:00,21.4,-0.9,30.26,WSW,247,0.0,0.0,37,0.00,CLR,,0.00,WeatherDisplay:10.37,2013-11-29 07:56:00,
2013-11-29 02:58:00,21.6,-1.3,30.17,WSW,247,0.0,0.0,36,0.00,CLR,,0.00,WeatherDisplay:10.37,2013-11-29 07:58:00,
2013-11-29 03:00:00,21.7,-1.2,30.23,WSW,247,0.0,0.0,36,0.00,CLR,,0.00,WeatherDisplay:10.37,2013-11-29 08:00:00,
2013-11-29 03:02:00,21.7,-1.2,30.22,WSW,247,0.0,0.0,36,0.00,CLR,,0.00,WeatherDisplay:10.37,2013-11-29 08:02:00,
2013-11-29 03:03:00,21.7,-1.2,30.21,WSW,247,0.0,0.0,36,0.00,CLR,,0.00,WeatherDisplay:10.37,2013-11-29 08:03:00,
2013-11-29 03:04:00,22.1,-0.8,30.21,WSW,247,0.0,0.0,36,0.00,CLR,,0.00,WeatherDisplay:10.37,2013-11-29 08:04:00,
2013-11-29 03:05:00,22.1,-0.8,30.21,WSW,247,0.0,0.0,36,0.00,CLR,,0.00,WeatherDisplay:10.37,2013-11-29 08:05:00,
2013-11-29 03:08:00,22.5,-0.5,30.26,WSW,247,0.0,0.0,36,0.00,CLR,,0.00,WeatherDisplay:10.37,2013-11-29 08:08:00,
2013-11-29 03:09:00,22.5,-0.5,30.21,WSW,247,0.0,0.0,36,0.00,CLR,,0.00,WeatherDisplay:10.37,2013-11-29 08:09:00,
2013-11-29 03:10:00,22.5,-0.5,30.21,WSW,247,0.0,0.0,36,0.00,CLR,,0.00,WeatherDisplay:10.37,2013-11-29 08:10:00,
2013-11-29 03:13:00,22.5,-0.5,30.21,WSW,247,0.0,0.0,36,0.00,CLR,,0.00,WeatherDisplay:10.37,2013-11-29 08:13:00,
2013-11-29 03:14:00,22.6,-0.4,30.21,WSW,247,0.0,0.0,36,0.00,CLR,,0.00,WeatherDisplay:10.37,2013-11-29 08:14:00,
2013-11-29 03:15:00,22.6,-0.4,30.22,WSW,247,0.0,0.0,36,0.00,CLR,,0.00,WeatherDisplay:10.37,2013-11-29 08:15:00,
2013-11-29 03:17:00,22.6,-0.4,30.23,WSW,247,0.0,0.0,36,0.00,CLR,,0.00,WeatherDisplay:10.37,2013-11-29 08:17:00,
2013-11-29 03:19:00,22.6,0.2,30.23,WSW,247,0.0,0.0,37,0.00,CLR,,0.00,WeatherDisplay:10.37,2013-11-29 08:19:00,
2013-11-29 03:20:00,22.6,0.2,30.23,WSW,247,0.0,0.0,37,0.00,CLR,,0.00,WeatherDisplay:10.37,2013-11-29 08:20:00,
2013-11-29 03:22:00,22.5,0.1,30.17,WSW,247,0.0,0.0,37,0.00,CLR,,0.00,WeatherDisplay:10.37,2013-11-29 08:22:00,
2013-11-29 03:23:00,22.5,0.1,30.18,WSW,247,0.0,0.0,37,0.00,CLR,,0.00,WeatherDisplay:10.37,2013-11-29 08:23:00,
2013-11-29 03:24:00,22.5,0.1,30.18,WSW,247,0.0,0.0,37,0.00,CLR,,0.00,WeatherDisplay:10.37,2013-11-29 08:24:00,
2013-11-29 03:27:00,22.3,-0.1,30.29,WSW,247,0.0,0.0,37,0.00,CLR,,0.00,WeatherDisplay:10.37,2013-11-29 08:27:00,
2013-11-29 03:28:00,22.3,-0.1,30.19,WSW,247,0.0,0.0,37,0.00,CLR,,0.00,WeatherDisplay:10.37,2013-11-29 08:28:00,
2013-11-29 03:31:00,22.3,-0.1,30.21,SW,225,0.0,0.0,37,0.00,CLR,,0.00,WeatherDisplay:10.37,2013-11-29 08:31:00,
2013-11-29 03:32:00,22.3,-0.7,30.21,SW,225,0.0,0.0,36,0.00,CLR,,0.00,WeatherDisplay:10.37,2013-11-29 08:32:00,
2013-11-29 03:33:00,22.3,-0.7,30.21,SW,225,0.0,0.0,36,0.00,CLR,,0.00,WeatherDisplay:10.37,2013-11-29 08:33:00,
2013-11-29 03:34:00,21.9,-1.0,30.21,SW,225,0.0,0.0,36,0.00,CLR,,0.00,WeatherDisplay:10.37,2013-11-29 08:34:00,
2013-11-29 03:37:00,21.9,-1.0,30.22,NNW,337,0.0,0.0,36,0.00,CLR,,0.00,WeatherDisplay:10.37,2013-11-29 08:37:00,
2013-11-29 03:38:00,21.7,-1.2,30.22,WSW,247,0.0,0.0,36,0.00,CLR,,0.00,WeatherDisplay:10.37,2013-11-29 08:38:00,
2013-11-29 03:39:00,21.7,-1.2,30.25,WSW,247,0.0,0.0,36,0.00,CLR,,0.00,WeatherDisplay:10.37,2013-11-29 08:39:00,
2013-11-29 03:40:00,21.7,-1.2,30.25,WSW,247,0.0,0.0,36,0.00,CLR,,0.00,WeatherDisplay:10.37,2013-11-29 08:40:00,
2013-11-29 03:41:00,21.7,-1.2,30.22,WSW,247,0.0,0.0,36,0.00,CLR,,0.00,WeatherDisplay:10.37,2013-11-29 08:41:00,
2013-11-29 03:42:00,21.7,-1.2,30.22,West,270,0.0,0.0,36,0.00,CLR,,0.00,WeatherDisplay:10.37,2013-11-29 08:42:00,
2013-11-29 03:43:00,21.7,-1.2,30.22,West,270,0.0,0.0,36,0.00,CLR,,0.00,WeatherDisplay:10.37,2013-11-29 08:43:00,
2013-11-29 03:44:00,21.7,-1.2,30.25,West,270,0.0,0.0,36,0.00,CLR,,0.00,WeatherDisplay:10.37,2013-11-29 08:44:00,
2013-11-29 03:45:00,21.7,-1.2,30.25,West,270,0.0,0.0,36,0.00,CLR,,0.00,WeatherDisplay:10.37,2013-11-29 08:45:00,
2013-11-29 03:48:00,21.6,-1.3,30.24,West,270,0.0,0.0,36,0.00,CLR,,0.00,WeatherDisplay:10.37,2013-11-29 08:48:00,
2013-11-29 03:49:00,21.6,-0.7,30.18,West,270,0.0,0.0,37,0.00,CLR,,0.00,WeatherDisplay:10.37,2013-11-29 08:49:00,
2013-11-29 03:50:00,21.6,-0.7,30.18,West,270,0.0,0.0,37,0.00,CLR,,0.00,WeatherDisplay:10.37,2013-11-29 08:50:00,
2013-11-29 03:53:00,21.6,-0.7,30.23,SW,225,0.0,0.0,37,0.00,CLR,,0.00,WeatherDisplay:10.37,2013-11-29 08:53:00,
2013-11-29 03:54:00,21.6,-0.7,30.23,SW,225,0.0,0.0,37,0.00,CLR,,0.00,WeatherDisplay:10.37,2013-11-29 08:54:00,
2013-11-29 03:55:00,21.6,-0.7,30.19,SW,225,0.0,0.0,37,0.00,CLR,,0.00,WeatherDisplay:10.37,2013-11-29 08:55:00,
2013-11-29 03:56:00,21.6,-0.7,30.22,SW,225,0.0,0.0,37,0.00,CLR,,0.00,WeatherDisplay:10.37,2013-11-29 08:56:00,
2013-11-29 03:58:00,21.6,-0.7,30.22,WSW,247,0.0,0.0,37,0.00,CLR,,0.00,WeatherDisplay:10.37,2013-11-29 08:58:00,
2013-11-29 04:00:00,21.4,-0.9,30.27,WSW,247,0.0,0.0,37,0.00,CLR,,0.00,WeatherDisplay:10.37,2013-11-29 09:00:00,
2013-11-29 04:01:00,21.4,-0.3,30.21,NNW,337,0.0,0.0,38,0.00,CLR,,0.00,WeatherDisplay:10.37,2013-11-29 09:01:00,
2013-11-29 04:03:00,21.4,-0.3,30.21,NNW,337,0.0,0.0,38,0.00,CLR,,0.00,WeatherDisplay:10.37,2013-11-29 09:03:00,
2013-11-29 04:04:00,21.4,-0.3,30.21,NNW,337,0.0,0.0,38,0.00,CLR,,0.00,WeatherDisplay:10.37,2013-11-29 09:04:00,
2013-11-29 04:05:00,21.4,-0.3,30.21,NNW,337,0.0,0.0,38,0.00,CLR,,0.00,WeatherDisplay:10.37,2013-11-29 09:05:00,
2013-11-29 04:06:00,21.4,-0.3,30.21,South,180,0.0,0.0,38,0.00,CLR,,0.00,WeatherDisplay:10.37,2013-11-29 09:06:00,
2013-11-29 04:07:00,21.2,-0.5,30.21,South,180,0.0,0.0,38,0.00,CLR,,0.00,WeatherDisplay:10.37,2013-11-29 09:07:00,
2013-11-29 04:09:00,24.6,2.6,30.22,NNE,22,0.0,0.0,38,0.00,CLR,,0.00,WeatherDisplay:10.37,2013-11-29 09:09:00,
2013-11-29 04:10:00,24.6,2.0,30.25,NNW,337,0.0,0.0,37,0.00,CLR,,0.00,WeatherDisplay:10.37,2013-11-29 09:10:00,
2013-11-29 04:11:00,24.4,1.8,30.24,North,0,0.0,0.0,37,0.00,CLR,,0.00,WeatherDisplay:10.37,2013-11-29 09:11:00,
2013-11-29 04:12:00,24.4,1.8,30.24,North,0,0.0,0.0,37,0.00,CLR,,0.00,WeatherDisplay:10.37,2013-11-29 09:12:00,
2013-11-29 04:14:00,24.4,1.8,30.28,North,0,0.0,0.0,37,0.00,CLR,,0.00,WeatherDisplay:10.37,2013-11-29 09:14:00,
2013-11-29 04:15:00,24.4,1.8,30.28,NNW,337,0.0,0.0,37,0.00,CLR,,0.00,WeatherDisplay:10.37,2013-11-29 09:15:00,
2013-11-29 04:16:00,24.4,1.8,30.24,NNW,337,0.0,0.0,37,0.00,CLR,,0.00,WeatherDisplay:10.37,2013-11-29 09:16:00,
2013-11-29 04:17:00,24.4,1.8,30.24,NNW,337,0.0,0.0,37,0.00,CLR,,0.00,WeatherDisplay:10.37,2013-11-29 09:17:00,
2013-11-29 04:20:00,24.3,2.3,30.24,NNW,337,0.0,0.0,38,0.00,CLR,,0.00,WeatherDisplay:10.37,2013-11-29 09:20:00,
2013-11-29 04:23:00,24.3,2.8,30.29,SW,225,0.0,0.0,39,0.00,CLR,,0.00,WeatherDisplay:10.37,2013-11-29 09:23:00,
2013-11-29 04:24:00,24.3,2.8,30.29,WSW,247,0.0,0.0,39,0.00,CLR,,0.00,WeatherDisplay:10.37,2013-11-29 09:24:00,
2013-11-29 04:25:00,24.3,2.8,30.29,WSW,247,0.0,0.0,39,0.00,CLR,,0.00,WeatherDisplay:10.37,2013-11-29 09:25:00,
2013-11-29 04:26:00,24.3,2.3,30.25,WSW,247,0.0,0.0,38,0.00,CLR,,0.00,WeatherDisplay:10.37,2013-11-29 09:26:00,
2013-11-29 04:27:00,24.1,2.1,30.25,WSW,247,0.0,0.0,38,0.00,CLR,,0.00,WeatherDisplay:10.37,2013-11-29 09:27:00,
2013-11-29 04:28:00,24.1,2.1,30.25,WSW,247,0.0,0.0,38,0.00,CLR,,0.00,WeatherDisplay:10.37,2013-11-29 09:28:00,
2013-11-29 04:31:00,24.1,2.1,30.26,WSW,247,0.0,0.0,38,0.00,CLR,,0.00,WeatherDisplay:10.37,2013-11-29 09:31:00,
2013-11-29 04:32:00,24.1,2.1,30.26,WSW,247,0.0,0.0,38,0.00,CLR,,0.00,WeatherDisplay:10.37,2013-11-29 09:32:00,
2013-11-29 04:33:00,24.1,2.1,30.26,WSW,247,0.0,0.0,38,0.00,CLR,,0.00,WeatherDisplay:10.37,2013-11-29 09:33:00,
2013-11-29 04:35:00,24.1,2.1,30.20,WSW,247,0.0,0.0,38,0.00,CLR,,0.00,WeatherDisplay:10.37,2013-11-29 09:35:00,
2013-11-29 04:36:00,24.1,2.1,30.20,WSW,247,0.0,0.0,38,0.00,CLR,,0.00,WeatherDisplay:10.37,2013-11-29 09:36:00,
2013-11-29 04:38:00,24.1,2.7,30.32,WSW,247,0.0,0.0,39,0.00,CLR,,0.00,WeatherDisplay:10.37,2013-11-29 09:38:00,
2013-11-29 04:40:00,24.4,3.0,30.21,WSW,247,0.0,0.0,39,0.00,CLR,,0.00,WeatherDisplay:10.37,2013-11-29 09:40:00,
2013-11-29 04:41:00,24.4,2.4,30.28,SSE,157,0.0,0.0,38,0.00,CLR,,0.00,WeatherDisplay:10.37,2013-11-29 09:41:00,
2013-11-29 04:43:00,24.6,2.6,30.31,SSE,157,0.0,0.0,38,0.00,CLR,,0.00,WeatherDisplay:10.37,2013-11-29 09:43:00,
2013-11-29 04:45:00,21.4,-0.3,30.21,South,180,0.0,0.0,38,0.00,CLR,,0.00,WeatherDisplay:10.37,2013-11-29 09:45:00,
2013-11-29 04:47:00,21.7,0.0,30.24,South,180,0.0,0.0,38,0.00,CLR,,0.00,WeatherDisplay:10.37,2013-11-29 09:47:00,
2013-11-29 04:48:00,21.7,0.0,30.23,South,180,0.0,0.0,38,0.00,CLR,,0.00,WeatherDisplay:10.37,2013-11-29 09:48:00,
2013-11-29 04:49:00,21.9,0.2,30.23,South,180,0.0,0.0,38,0.00,CLR,,0.00,WeatherDisplay:10.37,2013-11-29 09:49:00,
2013-11-29 04:50:00,21.9,0.2,30.23,South,180,0.0,0.0,38,0.00,CLR,,0.00,WeatherDisplay:10.37,2013-11-29 09:50:00,
2013-11-29 04:52:00,21.9,0.2,30.33,South,180,0.0,0.0,38,0.00,CLR,,0.00,WeatherDisplay:10.37,2013-11-29 09:52:00,
2013-11-29 04:54:00,22.5,0.6,30.23,South,180,0.0,0.0,38,0.00,CLR,,0.00,WeatherDisplay:10.37,2013-11-29 09:54:00,
2013-11-29 04:55:00,22.5,0.6,30.27,South,180,0.0,0.0,38,0.00,CLR,,0.00,WeatherDisplay:10.37,2013-11-29 09:55:00,
2013-11-29 04:57:00,22.6,0.8,30.24,South,180,0.0,0.0,38,0.00,CLR,,0.00,WeatherDisplay:10.37,2013-11-29 09:57:00,
2013-11-29 04:59:00,22.8,1.0,30.31,South,180,0.0,0.0,38,0.00,CLR,,0.00,WeatherDisplay:10.37,2013-11-29 09:59:00,
2013-11-29 05:00:00,22.8,1.0,30.24,South,180,0.0,0.0,38,0.00,CLR,,0.00,WeatherDisplay:10.37,2013-11-29 10:00:00,
2013-11-29 05:02:00,19.6,-2.0,30.31,South,180,0.0,0.0,38,0.00,CLR,,0.00,WeatherDisplay:10.37,2013-11-29 10:02:00,
2013-11-29 05:03:00,19.6,-2.0,30.24,South,180,0.0,0.0,38,0.00,CLR,,0.00,WeatherDisplay:10.37,2013-11-29 10:03:00,
2013-11-29 05:06:00,19.9,-1.6,30.29,South,180,0.0,0.0,38,0.00,CLR,,0.00,WeatherDisplay:10.37,2013-11-29 10:06:00,
2013-11-29 05:07:00,19.9,-1.6,30.24,South,180,0.0,0.0,38,0.00,CLR,,0.00,WeatherDisplay:10.37,2013-11-29 10:07:00,
2013-11-29 05:08:00,20.1,-1.5,30.24,South,180,0.0,0.0,38,0.00,CLR,,0.00,WeatherDisplay:10.37,2013-11-29 10:08:00,
2013-11-29 05:11:00,20.5,-1.1,30.31,South,180,0.0,0.0,38,0.00,CLR,,0.00,WeatherDisplay:10.37,2013-11-29 10:11:00,
2013-11-29 05:12:00,20.5,-1.1,30.31,South,180,0.0,0.0,38,0.00,CLR,,0.00,WeatherDisplay:10.37,2013-11-29 10:12:00,
2013-11-29 05:13:00,20.7,-1.0,30.23,South,180,0.0,0.0,38,0.00,CLR,,0.00,WeatherDisplay:10.37,2013-11-29 10:13:00,
2013-11-29 05:14:00,20.7,-1.0,30.23,South,180,0.0,0.0,38,0.00,CLR,,0.00,WeatherDisplay:10.37,2013-11-29 10:14:00,
2013-11-29 05:17:00,20.7,-1.0,30.32,ESE,112,0.0,0.0,38,0.00,CLR,,0.00,WeatherDisplay:10.37,2013-11-29 10:17:00,
2013-11-29 05:18:00,21.0,-0.7,30.32,ESE,112,0.0,0.0,38,0.00,CLR,,0.00,WeatherDisplay:10.37,2013-11-29 10:18:00,
2013-11-29 05:19:00,21.0,-0.7,30.29,ESE,112,0.0,0.0,38,0.00,CLR,,0.00,WeatherDisplay:10.37,2013-11-29 10:19:00,
2013-11-29 05:23:00,21.0,-1.2,30.25,East,90,0.0,0.0,37,0.00,CLR,,0.00,WeatherDisplay:10.37,2013-11-29 10:23:00,
2013-11-29 05:24:00,17.6,-4.3,30.25,East,90,0.0,0.0,37,0.00,CLR,,0.00,WeatherDisplay:10.37,2013-11-29 10:24:00,
2013-11-29 05:25:00,17.6,-4.3,30.25,East,90,0.0,0.0,37,0.00,CLR,,0.00,WeatherDisplay:10.37,2013-11-29 10:25:00,
2013-11-29 05:27:00,17.8,-4.1,30.29,East,90,0.0,0.0,37,0.00,CLR,,0.00,WeatherDisplay:10.37,2013-11-29 10:27:00,
2013-11-29 05:28:00,18.0,-4.0,30.29,East,90,0.0,0.0,37,0.00,CLR,,0.00,WeatherDisplay:10.37,2013-11-29 10:28:00,
2013-11-29 05:29:00,18.0,-4.0,30.28,East,90,0.0,0.0,37,0.00,CLR,,0.00,WeatherDisplay:10.37,2013-11-29 10:29:00,
2013-11-29 05:30:00,18.1,-3.8,30.28,East,90,0.0,0.0,37,0.00,CLR,,0.00,WeatherDisplay:10.37,2013-11-29 10:30:00,
2013-11-29 05:32:00,18.1,-4.4,30.29,East,90,0.0,0.0,36,0.00,CLR,,0.00,WeatherDisplay:10.37,2013-11-29 10:32:00,
2013-11-29 05:33:00,18.1,-4.4,30.27,East,90,0.0,0.0,36,0.00,CLR,,0.00,WeatherDisplay:10.37,2013-11-29 10:33:00,
2013-11-29 05:35:00,18.3,-4.2,30.34,East,90,0.0,0.0,36,0.00,CLR,,0.00,WeatherDisplay:10.37,2013-11-29 10:35:00,
2013-11-29 05:36:00,18.3,-4.2,30.34,East,90,0.0,0.0,36,0.00,CLR,,0.00,WeatherDisplay:10.37,2013-11-29 10:36:00,
2013-11-29 05:37:00,18.5,-4.1,30.34,East,90,0.0,0.0,36,0.00,CLR,,0.00,WeatherDisplay:10.37,2013-11-29 10:37:00,
2013-11-29 05:38:00,18.5,-4.1,30.34,East,90,0.0,0.0,36,0.00,CLR,,0.00,WeatherDisplay:10.37,2013-11-29 10:38:00,
2013-11-29 05:39:00,18.5,-4.1,30.30,East,90,0.0,0.0,36,0.00,CLR,,0.00,WeatherDisplay:10.37,2013-11-29 10:39:00,
2013-11-29 05:40:00,18.5,-4.1,30.30,East,90,0.0,0.0,36,0.00,CLR,,0.00,WeatherDisplay:10.37,2013-11-29 10:40:00,
2013-11-29 05:42:00,18.5,-4.7,30.28,East,90,0.0,0.0,35,0.00,CLR,,0.00,WeatherDisplay:10.37,2013-11-29 10:42:00,
2013-11-29 05:43:00,18.7,-4.5,30.32,East,90,0.0,0.0,35,0.00,CLR,,0.00,WeatherDisplay:10.37,2013-11-29 10:43:00,
2013-11-29 05:45:00,18.7,-4.5,30.29,East,90,0.0,0.0,35,0.00,CLR,,0.00,WeatherDisplay:10.37,2013-11-29 10:45:00,
2013-11-29 05:46:00,18.7,-4.5,30.29,East,90,0.0,0.0,35,0.00,CLR,,0.00,WeatherDisplay:10.37,2013-11-29 10:46:00,
2013-11-29 05:47:00,18.9,-4.3,30.30,East,90,0.0,0.0,35,0.00,CLR,,0.00,WeatherDisplay:10.37,2013-11-29 10:47:00,
2013-11-29 05:48:00,18.9,-4.3,30.30,East,90,0.0,0.0,35,0.00,CLR,,0.00,WeatherDisplay:10.37,2013-11-29 10:48:00,
2013-11-29 05:50:00,19.0,-3.6,30.32,East,90,0.0,0.0,36,0.00,CLR,,0.00,WeatherDisplay:10.37,2013-11-29 10:50:00,
2013-11-29 05:51:00,19.0,-3.6,30.32,East,90,0.0,0.0,36,0.00,CLR,,0.00,WeatherDisplay:10.37,2013-11-29 10:51:00,
2013-11-29 05:52:00,19.0,-3.6,30.24,East,90,0.0,0.0,36,0.00,CLR,,0.00,WeatherDisplay:10.37,2013-11-29 10:52:00,
2013-11-29 05:53:00,19.0,-3.6,30.24,East,90,0.0,0.0,36,0.00,CLR,,0.00,WeatherDisplay:10.37,2013-11-29 10:53:00,
2013-11-29 05:54:00,19.0,-3.6,30.24,East,90,0.0,0.0,36,0.00,CLR,,0.00,WeatherDisplay:10.37,2013-11-29 10:54:00,
2013-11-29 05:56:00,19.2,-3.4,30.34,East,90,0.0,0.0,36,0.00,CLR,,0.00,WeatherDisplay:10.37,2013-11-29 10:56:00,
2013-11-29 05:58:00,19.2,-3.4,30.25,East,90,0.0,0.0,36,0.00,CLR,,0.00,WeatherDisplay:10.37,2013-11-29 10:58:00,
2013-11-29 05:59:00,15.8,-6.5,30.25,East,90,0.0,0.0,36,0.00,CLR,,0.00,WeatherDisplay:10.37,2013-11-29 10:59:00,
2013-11-29 06:01:00,16.0,-6.3,30.30,East,90,0.0,0.0,36,0.00,CLR,,0.00,WeatherDisplay:10.37,2013-11-29 11:01:00,
2013-11-29 06:03:00,16.0,-6.3,30.28,East,90,0.0,0.0,36,0.00,CLR,,0.00,WeatherDisplay:10.37,2013-11-29 11:03:00,
2013-11-29 06:04:00,16.0,-5.8,30.27,East,90,0.0,0.0,37,0.00,CLR,,0.00,WeatherDisplay:10.37,2013-11-29 11:04:00,
2013-11-29 06:05:00,16.2,-5.6,30.27,East,90,0.0,0.0,37,0.00,CLR,,0.00,WeatherDisplay:10.37,2013-11-29 11:05:00,
2013-11-29 06:07:00,16.2,-6.2,30.30,East,90,0.0,0.0,36,0.00,CLR,,0.00,WeatherDisplay:10.37,2013-11-29 11:07:00,
2013-11-29 06:08:00,16.2,-5.6,30.33,NE,45,0.0,0.0,37,0.00,CLR,,0.00,WeatherDisplay:10.37,2013-11-29 11:08:00,
2013-11-29 06:09:00,16.3,-5.4,30.33,NE,45,0.0,0.0,37,0.00,CLR,,0.00,WeatherDisplay:10.37,2013-11-29 11:09:00,
2013-11-29 06:10:00,16.3,-5.4,30.28,NE,45,0.0,0.0,37,0.00,CLR,,0.00,WeatherDisplay:10.37,2013-11-29 11:10:00,
2013-11-29 06:14:00,16.5,-5.3,30.31,NE,45,0.0,0.0,37,0.00,CLR,,0.00,WeatherDisplay:10.37,2013-11-29 11:14:00,
2013-11-29 06:15:00,16.5,-5.3,30.30,NE,45,0.0,0.0,37,0.00,CLR,,0.00,WeatherDisplay:10.37,2013-11-29 11:15:00,
2013-11-29 06:20:00,16.7,-4.6,30.30,NE,45,0.0,0.0,38,0.00,CLR,,0.00,WeatherDisplay:10.37,2013-11-29 11:20:00,
2013-11-29 06:21:00,16.7,-4.6,30.29,NE,45,0.0,0.0,38,0.00,CLR,,0.00,WeatherDisplay:10.37,2013-11-29 11:21:00,
2013-11-29 06:22:00,16.7,-4.6,30.29,NE,45,0.0,0.0,38,0.00,CLR,,0.00,WeatherDisplay:10.37,2013-11-29 11:22:00,
2013-11-29 06:25:00,16.9,-4.4,30.28,NE,45,0.0,0.0,38,0.00,CLR,,0.00,WeatherDisplay:10.37,2013-11-29 11:25:00,
2013-11-29 06:26:00,16.9,-4.4,30.28,NE,45,0.0,0.0,38,0.00,CLR,,0.00,WeatherDisplay:10.37,2013-11-29 11:26:00,
2013-11-29 06:28:00,17.1,-4.2,30.27,NE,45,0.0,0.0,38,0.00,CLR,,0.00,WeatherDisplay:10.37,2013-11-29 11:28:00,
2013-11-29 06:29:00,17.1,-4.2,30.27,NE,45,0.0,0.0,38,0.00,CLR,,0.00,WeatherDisplay:10.37,2013-11-29 11:29:00,
2013-11-29 06:31:00,17.2,-4.6,30.27,NE,45,0.0,0.0,37,0.00,CLR,,0.00,WeatherDisplay:10.37,2013-11-29 11:31:00,
2013-11-29 06:32:00,17.2,-4.6,30.31,NE,45,0.0,0.0,37,0.00,CLR,,0.00,WeatherDisplay:10.37,2013-11-29 11:32:00,
2013-11-29 06:33:00,17.2,-4.6,30.31,NE,45,0.0,0.0,37,0.00,CLR,,0.00,WeatherDisplay:10.37,2013-11-29 11:33:00,
2013-11-29 06:34:00,17.2,-5.2,30.33,NE,45,0.0,0.0,36,0.00,CLR,,0.00,WeatherDisplay:10.37,2013-11-29 11:34:00,
2013-11-29 06:35:00,17.2,-5.2,30.33,NE,45,0.0,0.0,36,0.00,CLR,,0.00,WeatherDisplay:10.37,2013-11-29 11:35:00,
2013-11-29 06:37:00,17.4,-5.0,30.30,NW,315,0.0,0.0,36,0.00,CLR,,0.00,WeatherDisplay:10.37,2013-11-29 11:37:00,
2013-11-29 06:39:00,17.4,-5.6,30.31,NW,315,0.0,0.0,35,0.00,CLR,,0.00,WeatherDisplay:10.37,2013-11-29 11:39:00,
2013-11-29 06:40:00,17.4,-5.6,30.29,NW,315,0.0,0.0,35,0.00,CLR,,0.00,WeatherDisplay:10.37,2013-11-29 11:40:00,
2013-11-29 06:42:00,17.4,-6.2,30.38,WNW,292,0.0,0.0,34,0.00,CLR,,0.00,WeatherDisplay:10.37,2013-11-29 11:42:00,
2013-11-29 06:44:00,17.4,-6.8,30.36,WNW,292,0.0,0.0,33,0.00,CLR,,0.00,WeatherDisplay:10.37,2013-11-29 11:44:00,
2013-11-29 06:45:00,17.4,-6.8,30.36,WNW,292,0.0,0.0,33,0.00,CLR,,0.00,WeatherDisplay:10.37,2013-11-29 11:45:00,
2013-11-29 06:46:00,17.4,-6.8,30.34,WNW,292,0.0,0.0,33,0.00,CLR,,0.00,WeatherDisplay:10.37,2013-11-29 11:46:00,
2013-11-29 06:47:00,14.0,-9.9,30.34,WNW,292,0.0,0.0,33,0.00,CLR,,0.00,WeatherDisplay:10.37,2013-11-29 11:47:00,
2013-11-29 06:50:00,14.0,-9.9,30.28,WNW,292,0.0,0.0,33,0.00,CLR,,0.00,WeatherDisplay:10.37,2013-11-29 11:50:00,
2013-11-29 06:51:00,14.0,-9.3,30.35,WNW,292,0.0,0.0,34,0.00,CLR,,0.00,WeatherDisplay:10.37,2013-11-29 11:51:00,
2013-11-29 06:52:00,14.2,-9.1,30.35,WNW,292,0.0,0.0,34,0.00,CLR,,0.00,WeatherDisplay:10.37,2013-11-29 11:52:00,
2013-11-29 06:53:00,14.2,-9.1,30.36,WNW,292,0.0,0.0,34,0.00,CLR,,0.00,WeatherDisplay:10.37,2013-11-29 11:53:00,
2013-11-29 06:55:00,14.4,-8.4,30.29,WNW,292,0.0,0.0,35,0.00,CLR,,0.00,WeatherDisplay:10.37,2013-11-29 11:55:00,
2013-11-29 06:57:00,14.4,-8.4,30.35,NNW,337,0.0,0.0,35,0.00,CLR,,0.00,WeatherDisplay:10.37,2013-11-29 11:57:00,
2013-11-29 06:58:00,14.4,-8.4,30.35,NNW,337,0.0,0.0,35,0.00,CLR,,0.00,WeatherDisplay:10.37,2013-11-29 11:58:00,
2013-11-29 06:59:00,14.4,-8.4,30.33,NNW,337,0.0,0.0,35,0.00,CLR,,0.00,WeatherDisplay:10.37,2013-11-29 11:59:00,
2013-11-29 07:00:00,14.5,-8.2,30.33,NNW,337,0.0,0.0,35,0.00,CLR,,0.00,WeatherDisplay:10.37,2013-11-29 12:00:00,
2013-11-29 07:03:00,14.5,-8.8,30.34,NNW,337,0.0,0.0,34,0.00,CLR,,0.00,WeatherDisplay:10.37,2013-11-29 12:03:00,
2013-11-29 07:04:00,14.5,-8.8,30.34,NNW,337,0.0,0.0,34,0.00,CLR,,0.00,WeatherDisplay:10.37,2013-11-29 12:04:00,
2013-11-29 07:05:00,14.5,-8.8,30.32,NNW,337,0.0,0.0,34,0.00,CLR,,0.00,WeatherDisplay:10.37,2013-11-29 12:05:00,
2013-11-29 07:07:00,14.7,-8.0,30.33,NNW,337,0.0,0.0,35,0.00,CLR,,0.00,WeatherDisplay:10.37,2013-11-29 12:07:00,
2013-11-29 07:08:00,14.7,-8.0,30.33,NNW,337,0.0,0.0,35,0.00,CLR,,0.00,WeatherDisplay:10.37,2013-11-29 12:08:00,
2013-11-29 07:09:00,14.7,-8.0,30.34,NNW,337,0.0,0.0,35,0.00,CLR,,0.00,WeatherDisplay:10.37,2013-11-29 12:09:00,
2013-11-29 07:10:00,14.7,-8.0,30.34,NNW,337,0.0,0.0,35,0.00,CLR,,0.00,WeatherDisplay:10.37,2013-11-29 12:10:00,
2013-11-29 07:12:00,14.7,-7.5,30.38,NNW,337,0.0,0.0,36,0.00,CLR,,0.00,WeatherDisplay:10.37,2013-11-29 12:12:00,
2013-11-29 07:13:00,14.9,-7.3,30.38,NNW,337,0.0,0.0,36,0.00,CLR,,0.00,WeatherDisplay:10.37,2013-11-29 12:13:00,
2013-11-29 07:14:00,14.9,-7.3,30.29,NNW,337,0.0,0.0,36,0.00,CLR,,0.00,WeatherDisplay:10.37,2013-11-29 12:14:00,
2013-11-29 07:15:00,14.9,-7.3,30.29,NNW,337,0.0,0.0,36,0.00,CLR,,0.00,WeatherDisplay:10.37,2013-11-29 12:15:00,
2013-11-29 07:16:00,14.9,-7.3,30.29,NNW,337,0.0,0.0,36,0.00,CLR,,0.00,WeatherDisplay:10.37,2013-11-29 12:16:00,
2013-11-29 07:18:00,14.9,-7.3,30.32,NNW,337,0.0,0.0,36,0.00,CLR,,0.00,WeatherDisplay:10.37,2013-11-29 12:18:00,
2013-11-29 07:20:00,14.9,-7.3,30.34,NNW,337,0.0,0.0,36,0.00,CLR,,0.00,WeatherDisplay:10.37,2013-11-29 12:20:00,
2013-11-29 07:21:00,15.1,-7.1,30.34,NNW,337,0.0,0.0,36,0.00,CLR,,0.00,WeatherDisplay:10.37,2013-11-29 12:21:00,
2013-11-29 07:24:00,15.1,-6.6,30.31,NNW,337,0.0,0.0,37,0.00,CLR,,0.00,WeatherDisplay:10.37,2013-11-29 12:24:00,
2013-11-29 07:26:00,15.1,-6.6,30.32,NNW,337,0.0,0.0,37,0.00,CLR,,0.00,WeatherDisplay:10.37,2013-11-29 12:26:00,
2013-11-29 07:27:00,15.1,-6.6,30.32,NNW,337,0.0,0.0,37,0.00,CLR,,0.00,WeatherDisplay:10.37,2013-11-29 12:27:00,
2013-11-29 07:28:00,15.1,-6.6,30.31,NNW,337,0.0,0.0,37,0.00,CLR,,0.00,WeatherDisplay:10.37,2013-11-29 12:28:00,
2013-11-29 07:29:00,15.1,-6.6,30.31,NNW,337,0.0,0.0,37,0.00,CLR,,0.00,WeatherDisplay:10.37,2013-11-29 12:29:00,
2013-11-29 07:32:00,14.9,-6.7,30.30,NNW,337,0.0,0.0,37,0.00,CLR,,0.00,WeatherDisplay:10.37,2013-11-29 12:32:00,
2013-11-29 07:34:00,14.9,-7.3,30.39,NNW,337,0.0,0.0,36,0.00,CLR,,0.00,WeatherDisplay:10.37,2013-11-29 12:34:00,
2013-11-29 07:35:00,14.9,-7.3,30.39,NNW,337,0.0,0.0,36,0.00,CLR,,0.00,WeatherDisplay:10.37,2013-11-29 12:35:00,
2013-11-29 07:36:00,14.9,-7.3,30.37,NNW,337,0.0,0.0,36,0.00,CLR,,0.00,WeatherDisplay:10.37,2013-11-29 12:36:00,
2013-11-29 07:37:00,14.7,-7.5,30.37,NNW,337,0.0,0.0,36,0.00,CLR,,0.00,WeatherDisplay:10.37,2013-11-29 12:37:00,
2013-11-29 07:38:00,14.7,-7.5,30.39,NNW,337,0.0,0.0,36,0.00,CLR,,0.00,WeatherDisplay:10.37,2013-11-29 12:38:00,
2013-11-29 07:41:00,14.5,-8.2,30.44,NNW,337,0.0,0.0,35,0.00,CLR,,0.00,WeatherDisplay:10.37,2013-11-29 12:41:00,
2013-11-29 07:42:00,14.4,-8.4,30.32,NNW,337,0.0,0.0,35,0.00,CLR,,0.00,WeatherDisplay:10.37,2013-11-29 12:42:00,
2013-11-29 07:44:00,14.4,-8.4,30.43,NNW,337,0.0,0.0,35,0.00,CLR,,0.00,WeatherDisplay:10.37,2013-11-29 12:44:00,
2013-11-29 07:45:00,14.4,-8.4,30.43,NNW,337,0.0,0.0,35,0.00,CLR,,0.00,WeatherDisplay:10.37,2013-11-29 12:45:00,
2013-11-29 07:46:00,14.0,-8.7,30.42,NNW,337,0.0,0.0,35,0.00,CLR,,0.00,WeatherDisplay:10.37,2013-11-29 12:46:00,
2013-11-29 07:47:00,14.0,-8.7,30.42,NNW,337,0.0,0.0,35,0.00,CLR,,0.00,WeatherDisplay:10.37,2013-11-29 12:47:00,
2013-11-29 07:48:00,14.0,-8.7,30.37,NNW,337,0.0,0.0,35,0.00,CLR,,0.00,WeatherDisplay:10.37,2013-11-29 12:48:00,
2013-11-29 07:50:00,17.4,-5.0,30.37,NNW,337,0.0,0.0,36,0.00,CLR,,0.00,WeatherDisplay:10.37,2013-11-29 12:50:00,
2013-11-29 07:51:00,17.4,-5.0,30.37,NNW,337,0.0,0.0,36,0.00,CLR,,0.00,WeatherDisplay:10.37,2013-11-29 12:51:00,
2013-11-29 07:52:00,17.4,-5.0,30.37,NNW,337,0.0,0.0,36,0.00,CLR,,0.00,WeatherDisplay:10.37,2013-11-29 12:52:00,
2013-11-29 07:53:00,17.4,-5.0,30.40,NNW,337,0.0,0.0,36,0.00,CLR,,0.00,WeatherDisplay:10.37,2013-11-29 12:53:00,
2013-11-29 07:54:00,17.4,-5.0,30.35,NNW,337,0.0,0.0,36,0.00,CLR,,0.00,WeatherDisplay:10.37,2013-11-29 12:54:00,
2013-11-29 07:55:00,17.1,-5.4,30.35,NNW,337,0.0,0.0,36,0.00,CLR,,0.00,WeatherDisplay:10.37,2013-11-29 12:55:00,
2013-11-29 07:57:00,17.1,-5.4,30.35,NNW,337,0.0,0.0,36,0.00,CLR,,0.00,WeatherDisplay:10.37,2013-11-29 12:57:00,
2013-11-29 07:58:00,17.1,-5.4,30.35,NNW,337,0.0,0.0,36,0.00,CLR,,0.00,WeatherDisplay:10.37,2013-11-29 12:58:00,
2013-11-29 07:59:00,17.1,-5.4,30.37,NNW,337,0.0,0.0,36,0.00,CLR,,0.00,WeatherDisplay:10.37,2013-11-29 12:59:00,
2013-11-29 08:00:00,17.1,-5.4,30.35,NNW,337,0.0,0.0,36,0.00,CLR,,0.00,WeatherDisplay:10.37,2013-11-29 13:00:00,
2013-11-29 08:01:00,16.5,-5.8,30.35,NNW,337,0.0,0.0,36,0.00,CLR,,0.00,WeatherDisplay:10.37,2013-11-29 13:01:00,
2013-11-29 08:02:00,16.5,-5.8,30.36,NNW,337,0.0,0.0,36,0.00,CLR,,0.00,WeatherDisplay:10.37,2013-11-29 13:02:00,
2013-11-29 08:03:00,16.5,-5.8,30.41,NNW,337,0.0,0.0,36,0.00,CLR,,0.00,WeatherDisplay:10.37,2013-11-29 13:03:00,
2013-11-29 08:06:00,16.3,-5.4,30.41,North,0,0.0,0.0,37,0.00,CLR,,0.00,WeatherDisplay:10.37,2013-11-29 13:06:00,
2013-11-29 08:07:00,16.0,-5.8,30.41,North,0,0.0,0.0,37,0.00,CLR,,0.00,WeatherDisplay:10.37,2013-11-29 13:07:00,
2013-11-29 08:08:00,16.0,-5.8,30.41,NNE,22,0.0,0.0,37,0.00,CLR,,0.00,WeatherDisplay:10.37,2013-11-29 13:08:00,
2013-11-29 08:09:00,16.0,-5.8,30.41,NNE,22,0.0,0.0,37,0.00,CLR,,0.00,WeatherDisplay:10.37,2013-11-29 13:09:00,
2013-11-29 08:10:00,16.0,-6.3,30.39,NNE,22,0.0,0.0,36,0.00,CLR,,0.00,WeatherDisplay:10.37,2013-11-29 13:10:00,
2013-11-29 08:12:00,15.8,-6.5,30.33,NE,45,0.0,0.0,36,0.00,CLR,,0.00,WeatherDisplay:10.37,2013-11-29 13:12:00,
2013-11-29 08:14:00,19.0,-3.6,30.33,SE,135,0.0,0.0,36,0.00,CLR,,0.00,WeatherDisplay:10.37,2013-11-29 13:14:00,
2013-11-29 08:15:00,19.0,-3.6,30.34,SE,135,0.0,0.0,36,0.00,CLR,,0.00,WeatherDisplay:10.37,2013-11-29 13:15:00,
2013-11-29 08:17:00,18.7,-3.9,30.39,SE,135,0.0,0.0,36,0.00,CLR,,0.00,WeatherDisplay:10.37,2013-11-29 13:17:00,
2013-11-29 08:18:00,18.7,-3.9,30.36,SE,135,0.0,0.0,36,0.00,CLR,,0.00,WeatherDisplay:10.37,2013-11-29 13:18:00,
2013-11-29 08:19:00,18.5,-4.1,30.36,East,90,0.0,0.0,36,0.00,CLR,,0.00,WeatherDisplay:10.37,2013-11-29 13:19:00,
2013-11-29 08:20:00,18.5,-4.1,30.36,East,90,0.0,0.0,36,0.00,CLR,,0.00,WeatherDisplay:10.37,2013-11-29 13:20:00,
2013-11-29 08:22:00,18.5,-4.1,30.37,East,90,0.0,0.0,36,0.00,CLR,,0.00,WeatherDisplay:10.37,2013-11-29 13:22:00,
2013-11-29 08:23:00,18.3,-4.2,30.37,East,90,0.0,0.0,36,0.00,CLR,,0.00,WeatherDisplay:10.37,2013-11-29 13:23:00,
2013-11-29 08:25:00,18.1,-3.8,30.36,East,90,0.0,0.0,37,0.00,CLR,,0.00,WeatherDisplay:10.37,2013-11-29 13:25:00,
2013-11-29 08:26:00,18.0,-4.0,30.36,East,90,0.0,0.0,37,0.00,CLR,,0.00,WeatherDisplay:10.37,2013-11-29 13:26:00,
2013-11-29 08:27:00,18.0,-4.0,30.35,East,90,0.0,0.0,37,0.00,CLR,,0.00,WeatherDisplay:10.37,2013-11-29 13:27:00,
2013-11-29 08:28:00,17.8,-4.1,30.35,East,90,0.0,0.0,37,0.00,CLR,,0.00,WeatherDisplay:10.37,2013-11-29 13:28:00,
2013-11-29 08:30:00,17.8,-4.1,30.32,South,180,0.0,0.0,37,0.00,CLR,,0.00,WeatherDisplay:10.37,2013-11-29 13:30:00,
2013-11-29 08:31:00,17.8,-4.1,30.39,South,180,0.0,0.0,37,0.00,CLR,,0.00,WeatherDisplay:10.37,2013-11-29 13:31:00,
2013-11-29 08:33:00,21.0,-1.2,30.33,South,180,0.0,0.0,37,0.00,CLR,,0.00,WeatherDisplay:10.37,2013-11-29 13:33:00,
2013-11-29 08:34:00,21.0,-1.2,30.33,South,180,0.0,0.0,37,0.00,CLR,,0.00,WeatherDisplay:10.37,2013-11-29 13:34:00,
2013-11-29 08:36:00,20.8,-1.4,30.34,South,180,0.0,0.0,37,0.00,CLR,,0.00,WeatherDisplay:10.37,2013-11-29 13:36:00,
2013-11-29 08:37:00,20.5,-1.7,30.34,NW,315,0.0,0.0,37,0.00,CLR,,0.00,WeatherDisplay:10.37,2013-11-29 13:37:00,
2013-11-29 08:38:00,20.5,-1.7,30.34,NW,315,0.0,0.0,37,0.00,CLR,,0.00,WeatherDisplay:10.37,2013-11-29 13:38:00,
2013-11-29 08:39:00,20.5,-1.1,30.44,NNW,337,0.0,0.0,38,0.00,CLR,,0.00,WeatherDisplay:10.37,2013-11-29 13:39:00,
2013-11-29 08:40:00,20.5,-1.1,30.34,ENE,67,0.0,0.0,38,0.00,CLR,,0.00,WeatherDisplay:10.37,2013-11-29 13:40:00,
2013-11-29 08:42:00,19.9,-1.6,30.42,WSW,247,0.0,0.0,38,0.00,CLR,,0.00,WeatherDisplay:10.37,2013-11-29 13:42:00,
2013-11-29 08:43:00,19.9,-1.6,30.42,WSW,247,0.0,0.3,38,0.00,CLR,,0.00,WeatherDisplay:10.37,2013-11-29 13:43:00,
2013-11-29 08:44:00,19.9,-1.6,30.42,WSW,247,0.0,0.3,38,0.00,CLR,,0.00,WeatherDisplay:10.37,2013-11-29 13:44:00,
2013-11-29 08:45:00,19.9,-1.6,30.44,WSW,247,0.3,0.3,38,0.00,CLR,,0.00,WeatherDisplay:10.37,2013-11-29 13:45:00,
2013-11-29 08:48:00,19.9,-1.6,30.39,NW,315,0.3,0.0,38,0.00,CLR,,0.00,WeatherDisplay:10.37,2013-11-29 13:48:00,
2013-11-29 08:49:00,19.9,-1.6,30.32,South,180,0.3,0.0,38,0.00,CLR,,0.00,WeatherDisplay:10.37,2013-11-29 13:49:00,
2013-11-29 08:50:00,19.4,-2.1,30.32,South,180,0.3,0.0,38,0.00,CLR,,0.00,WeatherDisplay:10.37,2013-11-29 13:50:00,
2013-11-29 08:51:00,19.4,-2.1,30.42,South,180,0.3,0.0,38,0.00,CLR,,0.00,WeatherDisplay:10.37,2013-11-29 13:51:00,
2013-11-29 08:54:00,22.8,1.0,30.41,North,0,0.3,0.0,38,0.00,CLR,,0.00,WeatherDisplay:10.37,2013-11-29 13:54:00,
2013-11-29 08:56:00,22.3,0.5,30.43,North,0,0.3,0.0,38,0.00,CLR,,0.00,WeatherDisplay:10.37,2013-11-29 13:56:00,
2013-11-29 08:57:00,22.3,0.5,30.35,North,0,0.3,0.0,38,0.00,CLR,,0.00,WeatherDisplay:10.37,2013-11-29 13:57:00,
2013-11-29 08:58:00,22.1,0.3,30.35,NNW,337,0.3,0.0,38,0.00,CLR,,0.00,WeatherDisplay:10.37,2013-11-29 13:58:00,
2013-11-29 09:01:00,22.1,-0.3,30.39,NNW,337,0.3,0.0,37,0.00,CLR,,0.00,WeatherDisplay:10.37,2013-11-29 14:01:00,
2013-11-29 09:02:00,21.6,-0.7,30.39,NNW,337,0.3,0.0,37,0.00,CLR,,0.00,WeatherDisplay:10.37,2013-11-29 14:02:00,
2013-11-29 09:03:00,21.6,-0.7,30.39,NNW,337,0.3,0.0,37,0.00,CLR,,0.00,WeatherDisplay:10.37,2013-11-29 14:03:00,
2013-11-29 09:04:00,21.4,-0.9,30.39,NNW,337,0.3,0.0,37,0.00,CLR,,0.00,WeatherDisplay:10.37,2013-11-29 14:04:00,
2013-11-29 09:07:00,24.6,1.4,30.43,NNW,337,0.3,0.0,36,0.00,CLR,,0.00,WeatherDisplay:10.37,2013-11-29 14:07:00,
2013-11-29 09:09:00,24.6,1.4,30.37,NNW,337,0.3,0.0,36,0.00,CLR,,0.00,WeatherDisplay:10.37,2013-11-29 14:09:00,
2013-11-29 09:11:00,24.4,1.3,30.37,NNW,337,0.3,0.0,36,0.00,CLR,,0.00,WeatherDisplay:10.37,2013-11-29 14:11:00,
2013-11-29 09:12:00,24.3,1.1,30.38,NNW,337,0.3,0.0,36,0.00,CLR,,0.00,WeatherDisplay:10.37,2013-11-29 14:12:00,
2013-11-29 09:13:00,24.3,1.1,30.38,NNW,337,0.3,0.0,36,0.00,CLR,,0.00,WeatherDisplay:10.37,2013-11-29 14:13:00,
2013-11-29 09:15:00,24.3,1.1,30.38,NNW,337,0.3,0.3,36,0.00,CLR,,0.00,WeatherDisplay:10.37,2013-11-29 14:15:00,
2013-11-29 09:17:00,23.9,0.8,30.38,NNW,337,0.3,0.0,36,0.00,CLR,,0.00,WeatherDisplay:10.37,2013-11-29 14:17:00,
2013-11-29 09:18:00,23.9,0.8,30.34,NNW,337,0.3,0.0,36,0.00,CLR,,0.00,WeatherDisplay:10.37,2013-11-29 14:18:00,
2013-11-29 09:20:00,23.2,-0.5,30.34,SSE,157,0.3,0.0,35,0.00,CLR,,0.00,WeatherDisplay:10.37,2013-11-29 14:20:00,
2013-11-29 09:21:00,23.2,-0.5,30.34,SSE,157,0.3,0.0,35,0.00,CLR,,0.00,WeatherDisplay:10.37,2013-11-29 14:21:00,
2013-11-29 09:23:00,23.4,-0.3,30.34,SSE,157,0.3,0.0,35,0.00,CLR,,0.00,WeatherDisplay:10.37,2013-11-29 14:23:00,
2013-11-29 09:25:00,23.4,-0.3,30.43,NE,45,0.0,0.0,35,0.00,CLR,,0.00,WeatherDisplay:10.37,2013-11-29 14:25:00,
2013-11-29 09:26:00,23.2,-0.5,30.43,ENE,67,0.0,0.0,35,0.00,CLR,,0.00,WeatherDisplay:10.37,2013-11-29 14:26:00,
2013-11-29 09:27:00,23.2,-0.5,30.42,ENE,67,0.0,0.0,35,0.00,CLR,,0.00,WeatherDisplay:10.37,2013-11-29 14:27:00,
2013-11-29 09:28:00,23.0,0.0,30.42,NNW,337,0.0,0.0,36,0.00,CLR,,0.00,WeatherDisplay:10.37,2013-11-29 14:28:00,
2013-11-29 09:31:00,26.4,3.6,30.37,SW,225,0.0,0.0,37,0.00,CLR,,0.00,WeatherDisplay:10.37,2013-11-29 14:31:00,
2013-11-29 09:32:00,26.2,3.5,30.37,WNW,292,0.0,0.0,37,0.00,CLR,,0.00,WeatherDisplay:10.37,2013-11-29 14:32:00,
2013-11-29 09:33:00,26.2,3.5,30.37,WNW,292,0.0,0.0,37,0.00,CLR,,0.00,WeatherDisplay:10.37,2013-11-29 14:33:00,
2013-11-29 09:34:00,26.2,3.5,30.37,WNW,292,0.0,0.0,37,0.00,CLR,,0.00,WeatherDisplay:10.37,2013-11-29 14:34:00,
2013-11-29 09:36:00,25.9,3.1,30.38,WNW,292,0.0,0.0,37,0.00,CLR,,0.00,WeatherDisplay:10.37,2013-11-29 14:36:00,
2013-11-29 09:37:00,25.9,3.1,30.38,WNW,292,0.0,0.0,37,0.00,CLR,,0.00,WeatherDisplay:10.37,2013-11-29 14:37:00,
2013-11-29 09:38:00,25.9,3.1,30.38,North,0,0.0,0.0,37,0.00,CLR,,0.00,WeatherDisplay:10.37,2013-11-29 14:38:00,
2013-11-29 09:39:00,25.9,3.1,30.35,North,0,0.0,0.0,37,0.00,CLR,,0.00,WeatherDisplay:10.37,2013-11-29 14:39:00,
2013-11-29 09:40:00,25.9,3.1,30.40,North,0,0.0,0.0,37,0.00,CLR,,0.00,WeatherDisplay:10.37,2013-11-29 14:40:00,
2013-11-29 09:42:00,25.5,2.8,30.42,North,0,0.3,0.0,37,0.00,CLR,,0.00,WeatherDisplay:10.37,2013-11-29 14:42:00,
2013-11-29 09:43:00,25.5,2.8,30.42,NW,315,0.3,0.7,37,0.00,CLR,,0.00,WeatherDisplay:10.37,2013-11-29 14:43:00,
2013-11-29 09:44:00,25.5,2.8,30.42,NW,315,0.3,0.7,37,0.00,CLR,,0.00,WeatherDisplay:10.37,2013-11-29 14:44:00,
2013-11-29 09:46:00,25.3,2.7,30.34,NW,315,1.2,1.2,37,0.00,CLR,,0.00,WeatherDisplay:10.37,2013-11-29 14:46:00,
2013-11-29 09:47:00,25.3,2.7,30.34,NW,315,1.2,1.2,37,0.00,CLR,,0.00,WeatherDisplay:10.37,2013-11-29 14:47:00,
2013-11-29 09:48:00,25.3,2.7,30.38,NW,315,1.2,1.2,37,0.00,CLR,,0.00,WeatherDisplay:10.37,2013-11-29 14:48:00,
2013-11-29 09:49:00,25.3,2.7,30.36,NW,315,1.2,1.2,37,0.00,CLR,,0.00,WeatherDisplay:10.37,2013-11-29 14:49:00,
2013-11-29 09:50:00,25.3,2.7,30.36,NNW,337,1.2,0.0,37,0.00,CLR,,0.00,WeatherDisplay:10.37,2013-11-29 14:50:00,
2013-11-29 09:52:00,25.2,2.5,30.42,NNW,337,1.2,0.0,37,0.00,CLR,,0.00,WeatherDisplay:10.37,2013-11-29 14:52:00,
2013-11-29 09:53:00,25.0,2.3,30.42,NW,315,1.2,0.0,37,0.00,CLR,,0.00,WeatherDisplay:10.37,2013-11-29 14:53:00,
2013-11-29 09:55:00,25.0,2.3,30.37,NNW,337,1.2,0.0,37,0.00,CLR,,0.00,WeatherDisplay:10.37,2013-11-29 14:55:00,
2013-11-29 09:58:00,25.0,2.3,30.39,NNW,337,1.2,0.0,37,0.00,CLR,,0.00,WeatherDisplay:10.37,2013-11-29 14:58:00,
2013-11-29 10:00:00,24.8,2.2,30.40,NNE,22,1.2,1.2,37,0.00,CLR,,0.00,WeatherDisplay:10.37,2013-11-29 15:00:00,
2013-11-29 10:01:00,24.8,2.2,30.37,NNE,22,1.2,1.2,37,0.00,CLR,,0.00,WeatherDisplay:10.37,2013-11-29 15:01:00,
2013-11-29 10:02:00,24.8,2.7,30.37,North,0,1.2,0.0,38,0.00,CLR,,0.00,WeatherDisplay:10.37,2013-11-29 15:02:00,
2013-11-29 10:03:00,24.8,2.7,30.47,NW,315,1.2,0.0,38,0.00,CLR,,0.00,WeatherDisplay:10.37,2013-11-29 15:03:00,
2013-11-29 10:05:00,28.2,5.8,30.37,WNW,292,1.2,0.0,38,0.00,CLR,,0.00,WeatherDisplay:10.37,2013-11-29 15:05:00,
2013-11-29 10:06:00,28.2,5.8,30.37,WNW,292,1.2,0.0,38,0.00,CLR,,0.00,WeatherDisplay:10.37,2013-11-29 15:06:00,
2013-11-29 10:07:00,28.2,5.8,30.37,NW,315,1.2,0.0,38,0.00,CLR,,0.00,WeatherDisplay:10.37,2013-11-29 15:07:00,
2013-11-29 10:08:00,28.2,5.8,30.37,NNW,337,1.2,0.0,38,0.00,CLR,,0.00,WeatherDisplay:10.37,2013-11-29 15:08:00,
2013-11-29 10:09:00,28.2,5.2,30.41,NNW,337,1.2,0.0,37,0.00,CLR,,0.00,WeatherDisplay:10.37,2013-11-29 15:09:00,
2013-11-29 10:11:00,28.0,5.1,30.41,NW,315,1.2,1.2,37,0.00,CLR,,0.00,WeatherDisplay:10.37,2013-11-29 15:11:00,
2013-11-29 10:12:00,28.0,5.1,30.44,West,270,1.2,1.2,37,0.00,CLR,,0.00,WeatherDisplay:10.37,2013-11-29 15:12:00,
2013-11-29 10:13:00,28.0,5.1,30.44,West,270,1.2,0.0,37,0.00,CLR,,0.00,WeatherDisplay:10.37,2013-11-29 15:13:00,
2013-11-29 10:14:00,28.0,5.1,30.44,WSW,247,1.2,0.0,37,0.00,CLR,,0.00,WeatherDisplay:10.37,2013-11-29 15:14:00,
2013-11-29 10:16:00,27.9,4.3,30.39,SSW,202,1.2,1.2,36,0.00,CLR,,0.00,WeatherDisplay:10.37,2013-11-29 15:16:00,
2013-11-29 10:17:00,27.9,4.3,30.39,SSW,202,1.2,1.2,36,0.00,CLR,,0.00,WeatherDisplay:10.37,2013-11-29 15:17:00,
2013-11-29 10:18:00,27.9,4.3,30.42,SSW,202,1.2,1.2,36,0.00,CLR,,0.00,WeatherDisplay:10.37,2013-11-29 15:18:00,
2013-11-29 10:20:00,27.7,4.2,30.42,NNW,337,1.2,0.0,36,0.00,CLR,,0.00,WeatherDisplay:10.37,2013-11-29 15:20:00,
2013-11-29 10:23:00,27.7,4.2,30.47,NNW,337,1.2,2.0,36,0.00,CLR,,0.00,WeatherDisplay:10.37,2013-11-29 15:23:00,
2013-11-29 10:24:00,27.7,4.2,30.43,NNW,337,2.3,2.3,36,0.00,CLR,,0.00,WeatherDisplay:10.37,2013-11-29 15:24:00,
2013-11-29 10:26:00,27.5,4.0,30.42,NNW,337,2.3,2.3,36,0.00,CLR,,0.00,WeatherDisplay:10.37,2013-11-29 15:26:00,
2013-11-29 10:28:00,27.7,4.2,30.42,WNW,292,2.3,0.0,36,0.00,CLR,,0.00,WeatherDisplay:10.37,2013-11-29 15:28:00,
2013-11-29 10:29:00,27.7,4.2,30.42,WNW,292,2.3,0.0,36,0.00,CLR,,0.00,WeatherDisplay:10.37,2013-11-29 15:29:00,
2013-11-29 10:30:00,27.7,4.2,30.42,WNW,292,2.3,0.0,36,0.00,CLR,,0.00,WeatherDisplay:10.37,2013-11-29 15:30:00,
2013-11-29 10:32:00,27.5,3.4,30.47,WNW,292,2.3,0.0,35,0.00,CLR,,0.00,WeatherDisplay:10.37,2013-11-29 15:32:00,
2013-11-29 10:34:00,27.3,3.2,30.47,WNW,292,2.3,0.0,35,0.00,CLR,,0.00,WeatherDisplay:10.37,2013-11-29 15:34:00,
2013-11-29 10:35:00,27.3,3.2,30.47,WNW,292,2.3,0.0,35,0.00,CLR,,0.00,WeatherDisplay:10.37,2013-11-29 15:35:00,
2013-11-29 10:36:00,27.3,3.2,30.48,NNW,337,2.3,0.0,35,0.00,CLR,,0.00,WeatherDisplay:10.37,2013-11-29 15:36:00,
2013-11-29 10:38:00,27.3,3.2,30.48,NW,315,2.3,2.3,35,0.00,CLR,,0.00,WeatherDisplay:10.37,2013-11-29 15:38:00,
2013-11-29 10:40:00,27.3,3.2,30.38,North,0,2.3,2.3,35,0.00,CLR,,0.00,WeatherDisplay:10.37,2013-11-29 15:40:00,
2013-11-29 10:41:00,27.3,3.2,30.38,North,0,2.3,2.3,35,0.00,CLR,,0.00,WeatherDisplay:10.37,2013-11-29 15:41:00,
2013-11-29 10:45:00,27.3,3.2,30.39,NNW,337,2.3,2.3,35,0.00,CLR,,0.00,WeatherDisplay:10.37,2013-11-29 15:45:00,
2013-11-29 10:46:00,27.3,3.2,30.39,NNW,337,2.3,2.3,35,0.00,CLR,,0.00,WeatherDisplay:10.37,2013-11-29 15:46:00,
2013-11-29 10:48:00,27.1,3.1,30.44,NE,45,2.3,2.3,35,0.00,CLR,,0.00,WeatherDisplay:10.37,2013-11-29 15:48:00,
2013-11-29 10:51:00,27.1,3.1,30.41,North,0,2.3,2.3,35,0.00,CLR,,0.00,WeatherDisplay:10.37,2013-11-29 15:51:00,
2013-11-29 10:52:00,27.1,3.1,30.38,North,0,2.3,2.3,35,0.00,CLR,,0.00,WeatherDisplay:10.37,2013-11-29 15:52:00,
2013-11-29 10:53:00,26.8,2.7,30.38,North,0,2.3,2.3,35,0.00,CLR,,0.00,WeatherDisplay:10.37,2013-11-29 15:53:00,
2013-11-29 10:54:00,26.8,2.7,30.36,ENE,67,2.3,2.3,35,0.00,CLR,,0.00,WeatherDisplay:10.37,2013-11-29 15:54:00,
2013-11-29 10:56:00,26.8,2.7,30.36,North,0,2.3,0.0,35,0.00,CLR,,0.00,WeatherDisplay:10.37,2013-11-29 15:56:00,
2013-11-29 10:57:00,26.8,2.7,30.42,North,0,2.3,0.0,35,0.00,CLR,,0.00,WeatherDisplay:10.37,2013-11-29 15:57:00,
2013-11-29 10:59:00,29.5,5.1,30.42,SSE,157,2.3,0.0,35,0.00,CLR,,0.00,WeatherDisplay:10.37,2013-11-29 15:59:00,
2013-11-29 11:00:00,29.5,5.1,30.38,SSE,157,2.3,0.0,35,0.00,CLR,,0.00,WeatherDisplay:10.37,2013-11-29 16:00:00,
2013-11-29 11:01:00,29.3,5.0,30.38,SSE,157,2.3,0.0,35,0.00,CLR,,0.00,WeatherDisplay:10.37,2013-11-29 16:01:00,
2013-11-29 11:02:00,29.3,5.0,30.38,NNW,337,2.3,0.0,35,0.00,CLR,,0.00,WeatherDisplay:10.37,2013-11-29 16:02:00,
2013-11-29 11:04:00,28.6,5.0,30.39,SW,225,2.3,2.3,36,0.00,CLR,,0.00,WeatherDisplay:10.37,2013-11-29 16:04:00,
2013-11-29 11:06:00,28.6,4.3,30.38,SW,225,2.3,2.3,35,0.00,CLR,,0.00,WeatherDisplay:10.37,2013-11-29 16:06:00,
2013-11-29 11:07:00,30.2,5.8,30.38,ESE,112,2.3,0.0,35,0.00,CLR,,0.00,WeatherDisplay:10.37,2013-11-29 16:07:00,
2013-11-29 11:09:00,30.2,6.4,30.38,ENE,67,2.3,0.0,36,0.00,CLR,,0.00,WeatherDisplay:10.37,2013-11-29 16:09:00,
2013-11-29 11:10:00,30.6,6.7,30.38,South,180,2.3,0.0,36,0.00,CLR,,0.00,WeatherDisplay:10.37,2013-11-29 16:10:00,
2013-11-29 11:11:00,30.6,6.7,30.38,South,180,2.3,0.0,36,0.00,CLR,,0.00,WeatherDisplay:10.37,2013-11-29 16:11:00,
2013-11-29 11:12:00,30.7,6.9,30.38,South,180,2.3,0.0,36,0.00,CLR,,0.00,WeatherDisplay:10.37,2013-11-29 16:12:00,
2013-11-29 11:13:00,30.7,6.9,30.38,South,180,2.3,0.0,36,0.00,CLR,,0.00,WeatherDisplay:10.37,2013-11-29 16:13:00,
2013-11-29 11:14:00,30.7,6.9,30.38,South,180,2.3,0.0,36,0.00,CLR,,0.00,WeatherDisplay:10.37,2013-11-29 16:14:00,
2013-11-29 11:15:00,30.7,7.5,30.42,SSW,202,2.3,0.0,37,0.00,CLR,,0.00,WeatherDisplay:10.37,2013-11-29 16:15:00,
2013-11-29 11:16:00,30.7,7.5,30.42,SSW,202,2.3,0.0,37,0.00,CLR,,0.00,WeatherDisplay:10.37,2013-11-29 16:16:00,
2013-11-29 11:17:00,30.7,7.5,30.42,NW,315,2.3,0.0,37,0.00,CLR,,0.00,WeatherDisplay:10.37,2013-11-29 16:17:00,
2013-11-29 11:18:00,30.7,7.5,30.39,NW,315,2.3,0.0,37,0.00,CLR,,0.00,WeatherDisplay:10.37,2013-11-29 16:18:00,
2013-11-29 11:20:00,30.7,7.5,30.39,NW,315,2.3,2.3,37,0.00,CLR,,0.00,WeatherDisplay:10.37,2013-11-29 16:20:00,
2013-11-29 11:21:00,30.7,7.5,30.39,NNW,337,2.3,2.3,37,0.00,CLR,,0.00,WeatherDisplay:10.37,2013-11-29 16:21:00,
2013-11-29 11:23:00,31.6,8.3,30.39,NNW,337,2.3,2.3,37,0.00,CLR,,0.00,WeatherDisplay:10.37,2013-11-29 16:23:00,
2013-11-29 11:24:00,31.6,8.3,30.39,NNW,337,2.3,2.3,37,0.00,CLR,,0.00,WeatherDisplay:10.37,2013-11-29 16:24:00,
2013-11-29 11:25:00,31.6,8.3,30.39,NNW,337,1.2,2.0,37,0.00,CLR,,0.00,WeatherDisplay:10.37,2013-11-29 16:25:00,
2013-11-29 11:26:00,31.6,8.3,30.39,NW,315,1.2,2.0,37,0.00,CLR,,0.00,WeatherDisplay:10.37,2013-11-29 16:26:00,
2013-11-29 11:27:00,31.6,8.3,30.38,NW,315,2.3,2.3,37,0.00,CLR,,0.00,WeatherDisplay:10.37,2013-11-29 16:27:00,
2013-11-29 11:28:00,31.6,7.7,30.38,NW,315,2.3,2.3,36,0.00,CLR,,0.00,WeatherDisplay:10.37,2013-11-29 16:28:00,
2013-11-29 11:30:00,31.5,7.5,30.38,North,0,2.3,2.3,36,0.00,CLR,,0.00,WeatherDisplay:10.37,2013-11-29 16:30:00,
2013-11-29 11:31:00,31.3,7.4,30.42,North,0,2.3,2.3,36,0.00,CLR,,0.00,WeatherDisplay:10.37,2013-11-29 16:31:00,
2013-11-29 11:32:00,31.3,7.4,30.42,North,0,2.3,2.3,36,0.00,CLR,,0.00,WeatherDisplay:10.37,2013-11-29 16:32:00,
2013-11-29 11:35:00,31.3,7.4,30.41,NNW,337,2.3,2.4,36,0.00,CLR,,0.00,WeatherDisplay:10.37,2013-11-29 16:35:00,
2013-11-29 11:37:00,31.1,7.2,30.40,North,0,2.4,2.4,36,0.00,CLR,,0.00,WeatherDisplay:10.37,2013-11-29 16:37:00,
2013-11-29 11:39:00,30.9,7.1,30.45,NW,315,2.4,2.4,36,0.00,CLR,,0.00,WeatherDisplay:10.37,2013-11-29 16:39:00,
2013-11-29 11:40:00,30.7,6.3,30.45,WSW,247,2.4,2.4,35,0.00,CLR,,0.00,WeatherDisplay:10.37,2013-11-29 16:40:00,
2013-11-29 11:41:00,30.7,6.3,30.45,WSW,247,2.4,2.4,35,0.00,CLR,,0.00,WeatherDisplay:10.37,2013-11-29 16:41:00,
2013-11-29 11:43:00,30.7,6.3,30.48,SW,225,2.4,0.0,35,0.00,CLR,,0.00,WeatherDisplay:10.37,2013-11-29 16:43:00,
2013-11-29 11:45:00,30.7,6.3,30.47,SSW,202,2.4,0.0,35,0.00,CLR,,0.00,WeatherDisplay:10.37,2013-11-29 16:45:00,
2013-11-29 11:46:00,30.7,6.3,30.47,SSW,202,2.4,2.4,35,0.00,CLR,,0.00,WeatherDisplay:10.37,2013-11-29 16:46:00,
2013-11-29 11:47:00,30.7,6.3,30.47,NW,315,2.4,2.4,35,0.00,CLR,,0.00,WeatherDisplay:10.37,2013-11-29 16:47:00,
2013-11-29 11:48:00,30.7,6.9,30.37,WNW,292,2.4,2.4,36,0.00,CLR,,0.00,WeatherDisplay:10.37,2013-11-29 16:48:00,
2013-11-29 11:50:00,30.9,7.1,30.37,WNW,292,2.4,2.4,36,0.00,CLR,,0.00,WeatherDisplay:10.37,2013-11-29 16:50:00,
2013-11-29 11:51:00,30.9,7.1,30.38,NW,315,2.4,2.4,36,0.00,CLR,,0.00,WeatherDisplay:10.37,2013-11-29 16:51:00,
2013-11-29 11:52:00,30.9,7.1,30.38,NW,315,2.4,2.4,36,0.00,CLR,,0.00,WeatherDisplay:10.37,2013-11-29 16:52:00,
2013-11-29 11:53:00,30.9,7.1,30.38,NW,315,2.4,2.4,36,0.00,CLR,,0.00,WeatherDisplay:10.37,2013-11-29 16:53:00,
2013-11-29 11:54:00,30.9,6.4,30.38,NW,315,2.4,2.4,35,0.00,CLR,,0.00,WeatherDisplay:10.37,2013-11-29 16:54:00,
2013-11-29 11:55:00,30.9,6.4,30.38,WNW,292,2.4,0.0,35,0.00,CLR,,0.00,WeatherDisplay:10.37,2013-11-29 16:55:00,
2013-11-29 11:56:00,30.9,6.4,30.38,WNW,292,2.4,0.0,35,0.00,CLR,,0.00,WeatherDisplay:10.37,2013-11-29 16:56:00,
2013-11-29 11:57:00,30.9,5.8,30.39,WNW,292,2.4,0.0,34,0.00,CLR,,0.00,WeatherDisplay:10.37,2013-11-29 16:57:00,
2013-11-29 12:00:00,31.3,6.1,30.39,NNW,337,2.4,2.4,34,0.00,CLR,,0.00,WeatherDisplay:10.37,2013-11-29 17:00:00,
2013-11-29 12:02:00,33.1,8.4,30.39,NNW,337,2.4,2.4,35,0.00,CLR,,0.00,WeatherDisplay:10.37,2013-11-29 17:02:00,
2013-11-29 12:04:00,33.6,8.8,30.40,NNW,337,2.4,2.4,35,0.00,CLR,,0.00,WeatherDisplay:10.37,2013-11-29 17:04:00,
2013-11-29 12:05:00,33.6,8.8,30.40,NNW,337,2.4,0.0,35,0.00,CLR,,0.00,WeatherDisplay:10.37,2013-11-29 17:05:00,
2013-11-29 12:07:00,34.3,9.5,30.40,NNW,337,2.4,0.0,35,0.00,CLR,,0.00,WeatherDisplay:10.37,2013-11-29 17:07:00,
2013-11-29 12:08:00,34.9,10.0,30.40,NNW,337,2.4,0.0,35,0.00,CLR,,0.00,WeatherDisplay:10.37,2013-11-29 17:08:00,
2013-11-29 12:09:00,34.9,10.0,30.35,NNW,337,2.4,0.0,35,0.00,CLR,,0.00,WeatherDisplay:10.37,2013-11-29 17:09:00,
2013-11-29 12:10:00,35.4,9.8,30.35,NW,315,2.4,2.4,34,0.00,CLR,,0.00,WeatherDisplay:10.37,2013-11-29 17:10:00,
2013-11-29 12:12:00,35.4,10.4,30.38,WNW,292,2.4,2.4,35,0.00,CLR,,0.00,WeatherDisplay:10.37,2013-11-29 17:12:00,
2013-11-29 12:13:00,35.4,10.4,30.38,SW,225,2.4,2.4,35,0.00,CLR,,0.00,WeatherDisplay:10.37,2013-11-29 17:13:00,
2013-11-29 12:14:00,35.4,10.4,30.42,SW,225,2.4,2.4,35,0.00,CLR,,0.00,WeatherDisplay:10.37,2013-11-29 17:14:00,
2013-11-29 12:15:00,35.8,11.4,30.42,South,180,2.4,2.4,36,0.00,CLR,,0.00,WeatherDisplay:10.37,2013-11-29 17:15:00,
2013-11-29 12:17:00,35.4,11.1,30.37,WSW,247,2.4,2.4,36,0.00,CLR,,0.00,WeatherDisplay:10.37,2013-11-29 17:17:00,
2013-11-29 12:18:00,35.6,11.2,30.37,WSW,247,2.4,2.4,36,0.00,CLR,,0.00,WeatherDisplay:10.37,2013-11-29 17:18:00,
2013-11-29 12:19:00,35.6,11.2,30.37,WSW,247,2.4,2.4,36,0.00,CLR,,0.00,WeatherDisplay:10.37,2013-11-29 17:19:00,
2013-11-29 12:22:00,35.1,11.4,30.37,South,180,2.4,2.4,37,0.00,CLR,,0.00,WeatherDisplay:10.37,2013-11-29 17:22:00,
2013-11-29 12:23:00,35.1,10.7,30.37,South,180,2.3,2.3,36,0.00,CLR,,0.00,WeatherDisplay:10.37,2013-11-29 17:23:00,
2013-11-29 12:24:00,35.1,10.7,30.37,South,180,1.2,1.2,36,0.00,CLR,,0.00,WeatherDisplay:10.37,2013-11-29 17:24:00,
2013-11-29 12:26:00,34.9,10.6,30.38,NE,45,1.2,1.2,36,0.00,CLR,,0.00,WeatherDisplay:10.37,2013-11-29 17:26:00,
2013-11-29 12:28:00,34.5,10.3,30.38,SW,225,1.2,0.0,36,0.00,CLR,,0.00,WeatherDisplay:10.37,2013-11-29 17:28:00,
2013-11-29 12:29:00,34.5,10.3,30.38,SW,225,1.2,0.0,36,0.00,CLR,,0.00,WeatherDisplay:10.37,2013-11-29 17:29:00,
2013-11-29 12:31:00,33.8,9.6,30.38,SW,225,1.2,0.0,36,0.00,CLR,,0.00,WeatherDisplay:10.37,2013-11-29 17:31:00,
2013-11-29 12:33:00,33.6,9.5,30.41,WNW,292,1.2,1.2,36,0.00,CLR,,0.00,WeatherDisplay:10.37,2013-11-29 17:33:00,
2013-11-29 12:34:00,33.6,9.5,30.41,WNW,292,1.2,1.2,36,0.00,CLR,,0.00,WeatherDisplay:10.37,2013-11-29 17:34:00,
2013-11-29 12:36:00,33.3,9.1,30.42,ENE,67,1.2,1.2,36,0.00,CLR,,0.00,WeatherDisplay:10.37,2013-11-29 17:36:00,
2013-11-29 12:37:00,33.1,9.0,30.42,ENE,67,1.2,1.2,36,0.00,CLR,,0.00,WeatherDisplay:10.37,2013-11-29 17:37:00,
2013-11-29 12:41:00,33.1,9.6,30.38,NNW,337,1.2,1.2,37,0.00,CLR,,0.00,WeatherDisplay:10.37,2013-11-29 17:41:00,
2013-11-29 12:42:00,33.1,9.6,30.38,NNW,337,1.2,1.2,37,0.00,CLR,,0.00,WeatherDisplay:10.37,2013-11-29 17:42:00,
2013-11-29 12:43:00,32.9,9.4,30.38,NNW,337,1.2,1.2,37,0.00,CLR,,0.00,WeatherDisplay:10.37,2013-11-29 17:43:00,
2013-11-29 12:46:00,33.1,9.6,30.41,WNW,292,1.2,0.0,37,0.00,CLR,,0.00,WeatherDisplay:10.37,2013-11-29 17:46:00,
2013-11-29 12:47:00,33.1,9.6,30.39,WNW,292,1.2,0.0,37,0.00,CLR,,0.00,WeatherDisplay:10.37,2013-11-29 17:47:00,
2013-11-29 12:48:00,33.3,9.8,30.39,WNW,292,1.2,0.0,37,0.00,CLR,,0.00,WeatherDisplay:10.37,2013-11-29 17:48:00,
2013-11-29 12:50:00,33.3,9.8,30.41,SE,135,1.2,0.0,37,0.00,CLR,,0.00,WeatherDisplay:10.37,2013-11-29 17:50:00,
2013-11-29 12:51:00,33.1,9.6,30.41,SSE,157,1.2,0.0,37,0.00,CLR,,0.00,WeatherDisplay:10.37,2013-11-29 17:51:00,
2013-11-29 12:53:00,32.9,9.4,30.42,ENE,67,1.2,0.0,37,0.00,CLR,,0.00,WeatherDisplay:10.37,2013-11-29 17:53:00,
2013-11-29 12:54:00,32.9,9.4,30.42,ENE,67,1.2,0.0,37,0.00,CLR,,0.00,WeatherDisplay:10.37,2013-11-29 17:54:00,
2013-11-29 12:56:00,32.7,9.9,30.38,NNW,337,1.2,2.0,38,0.00,CLR,,0.00,WeatherDisplay:10.37,2013-11-29 17:56:00,
2013-11-29 12:57:00,32.7,9.9,30.38,NNW,337,1.2,2.0,38,0.00,CLR,,0.00,WeatherDisplay:10.37,2013-11-29 17:57:00,
2013-11-29 12:58:00,32.7,9.9,30.43,NNW,337,2.3,2.3,38,0.00,CLR,,0.00,WeatherDisplay:10.37,2013-11-29 17:58:00,
2013-11-29 12:59:00,32.7,9.9,30.43,NNW,337,2.3,2.3,38,0.00,CLR,,0.00,WeatherDisplay:10.37,2013-11-29 17:59:00,
2013-11-29 13:00:00,32.7,9.9,30.41,NNW,337,2.3,2.3,38,0.00,CLR,,0.00,WeatherDisplay:10.37,2013-11-29 18:00:00,
2013-11-29 13:02:00,32.7,9.9,30.41,NW,315,2.3,2.3,38,0.00,CLR,,0.00,WeatherDisplay:10.37,2013-11-29 18:02:00,
2013-11-29 13:05:00,32.7,9.9,30.39,WSW,247,2.3,0.0,38,0.00,CLR,,0.00,WeatherDisplay:10.37,2013-11-29 18:05:00,
2013-11-29 13:07:00,33.3,9.8,30.33,WNW,292,2.3,2.3,37,0.00,CLR,,0.00,WeatherDisplay:10.37,2013-11-29 18:07:00,
2013-11-29 13:08:00,33.3,9.8,30.33,WNW,292,2.3,2.3,37,0.00,CLR,,0.00,WeatherDisplay:10.37,2013-11-29 18:08:00,
2013-11-29 13:09:00,33.3,9.8,30.34,SE,135,2.3,2.3,37,0.00,CLR,,0.00,WeatherDisplay:10.37,2013-11-29 18:09:00,
2013-11-29 13:10:00,34.3,10.7,30.34,SSE,157,2.3,0.0,37,0.00,CLR,,0.00,WeatherDisplay:10.37,2013-11-29 18:10:00,
2013-11-29 13:11:00,34.3,10.7,30.33,SSE,157,2.3,0.0,37,0.00,CLR,,0.00,WeatherDisplay:10.37,2013-11-29 18:11:00,
2013-11-29 13:13:00,36.5,12.7,30.41,SSW,202,2.3,0.0,37,0.00,CLR,,0.00,WeatherDisplay:10.37,2013-11-29 18:13:00,
2013-11-29 13:14:00,36.5,12.7,30.41,SSW,202,2.3,0.0,37,0.00,CLR,,0.00,WeatherDisplay:10.37,2013-11-29 18:14:00,
2013-11-29 13:16:00,37.4,13.5,30.33,ENE,67,2.3,2.3,37,0.00,CLR,,0.00,WeatherDisplay:10.37,2013-11-29 18:16:00,
2013-11-29 13:17:00,37.4,13.5,30.33,SSE,157,2.3,2.3,37,0.00,CLR,,0.00,WeatherDisplay:10.37,2013-11-29 18:17:00,
2013-11-29 13:18:00,37.4,13.5,30.33,SSE,157,2.3,2.3,37,0.00,CLR,,0.00,WeatherDisplay:10.37,2013-11-29 18:18:00,
2013-11-29 13:19:00,37.8,13.8,30.33,SSE,157,2.3,2.3,37,0.00,CLR,,0.00,WeatherDisplay:10.37,2013-11-29 18:19:00,
2013-11-29 13:20:00,38.1,14.1,30.33,SSW,202,2.3,2.3,37,0.00,CLR,,0.00,WeatherDisplay:10.37,2013-11-29 18:20:00,
2013-11-29 13:22:00,38.1,14.1,30.44,SSW,202,2.3,0.0,37,0.00,CLR,,0.00,WeatherDisplay:10.37,2013-11-29 18:22:00,
2013-11-29 13:24:00,38.1,14.1,30.38,North,0,2.3,0.0,37,0.00,CLR,,0.00,WeatherDisplay:10.37,2013-11-29 18:24:00,
2013-11-29 13:26:00,39.2,15.1,30.38,South,180,0.0,0.0,37,0.00,CLR,,0.00,WeatherDisplay:10.37,2013-11-29 18:26:00,
2013-11-29 13:29:00,39.7,15.6,30.40,SSW,202,0.3,0.0,37,0.00,CLR,,0.00,WeatherDisplay:10.37,2013-11-29 18:29:00,
2013-11-29 13:30:00,39.7,15.6,30.38,SSW,202,0.3,0.0,37,0.00,CLR,,0.00,WeatherDisplay:10.37,2013-11-29 18:30:00,
2013-11-29 13:31:00,39.7,15.6,30.39,SSW,202,0.3,0.0,37,0.00,CLR,,0.00,WeatherDisplay:10.37,2013-11-29 18:31:00,
2013-11-29 13:33:00,40.8,16.5,30.45,SW,225,0.3,0.0,37,0.00,CLR,,0.00,WeatherDisplay:10.37,2013-11-29 18:33:00,
2013-11-29 13:35:00,41.5,17.2,30.45,West,270,0.3,0.3,37,0.00,CLR,,0.00,WeatherDisplay:10.37,2013-11-29 18:35:00,
2013-11-29 13:36:00,41.5,16.5,30.39,WSW,247,0.3,0.3,36,0.00,CLR,,0.00,WeatherDisplay:10.37,2013-11-29 18:36:00,
2013-11-29 13:38:00,41.9,16.9,30.39,WSW,247,0.3,0.3,36,0.00,CLR,,0.00,WeatherDisplay:10.37,2013-11-29 18:38:00,
2013-11-29 13:40:00,41.9,16.9,30.46,SE,135,0.3,0.0,36,0.00,CLR,,0.00,WeatherDisplay:10.37,2013-11-29 18:40:00,
2013-11-29 13:41:00,41.9,16.9,30.46,SE,135,0.3,1.7,36,0.00,CLR,,0.00,WeatherDisplay:10.37,2013-11-29 18:41:00,
2013-11-29 13:42:00,41.9,16.9,30.37,SE,135,1.7,1.7,36,0.00,CLR,,0.00,WeatherDisplay:10.37,2013-11-29 18:42:00,
2013-11-29 13:43:00,42.1,17.0,30.37,SSE,157,1.7,1.7,36,0.00,CLR,,0.00,WeatherDisplay:10.37,2013-11-29 18:43:00,
2013-11-29 13:45:00,42.3,16.5,30.41,SSE,157,1.7,1.7,35,0.00,CLR,,0.00,WeatherDisplay:10.37,2013-11-29 18:45:00,
2013-11-29 13:46:00,42.3,16.5,30.41,East,90,1.7,1.7,35,0.00,CLR,,0.00,WeatherDisplay:10.37,2013-11-29 18:46:00,
2013-11-29 13:47:00,42.3,16.5,30.41,East,90,1.7,1.7,35,0.00,CLR,,0.00,WeatherDisplay:10.37,2013-11-29 18:47:00,
2013-11-29 13:48:00,42.4,16.0,30.41,NW,315,1.7,0.0,34,0.00,CLR,,0.00,WeatherDisplay:10.37,2013-11-29 18:48:00,
2013-11-29 13:50:00,42.4,16.7,30.37,NW,315,1.7,0.0,35,0.00,CLR,,0.00,WeatherDisplay:10.37,2013-11-29 18:50:00,
2013-11-29 13:51:00,43.0,17.2,30.37,East,90,1.7,0.0,35,0.00,CLR,,0.00,WeatherDisplay:10.37,2013-11-29 18:51:00,
2013-11-29 13:52:00,43.0,17.2,30.41,East,90,1.7,0.0,35,0.00,CLR,,0.00,WeatherDisplay:10.37,2013-11-29 18:52:00,
2013-11-29 13:53:00,43.5,17.6,30.41,East,90,1.7,1.7,35,0.00,CLR,,0.00,WeatherDisplay:10.37,2013-11-29 18:53:00,
2013-11-29 13:55:00,44.1,18.8,30.37,WNW,292,1.7,1.7,36,0.00,CLR,,0.00,WeatherDisplay:10.37,2013-11-29 18:55:00,
2013-11-29 13:56:00,44.1,18.8,30.37,WSW,247,1.7,1.7,36,0.00,CLR,,0.00,WeatherDisplay:10.37,2013-11-29 18:56:00,
2013-11-29 13:57:00,44.6,19.3,30.37,WSW,247,1.7,1.7,36,0.00,CLR,,0.00,WeatherDisplay:10.37,2013-11-29 18:57:00,
2013-11-29 13:58:00,44.6,19.3,30.31,NNW,337,1.7,1.7,36,0.00,CLR,,0.00,WeatherDisplay:10.37,2013-11-29 18:58:00,
2013-11-29 13:59:00,44.6,18.6,30.31,NNW,337,1.7,1.7,35,0.00,CLR,,0.00,WeatherDisplay:10.37,2013-11-29 18:59:00,
2013-11-29 14:02:00,45.1,19.7,30.32,WNW,292,1.7,0.0,36,0.00,CLR,,0.00,WeatherDisplay:10.37,2013-11-29 19:02:00,
2013-11-29 14:04:00,45.9,20.4,30.42,WNW,292,1.7,1.7,36,0.00,CLR,,0.00,WeatherDisplay:10.37,2013-11-29 19:04:00,
2013-11-29 14:05:00,46.8,21.2,30.42,WNW,292,1.7,1.7,36,0.00,CLR,,0.00,WeatherDisplay:10.37,2013-11-29 19:05:00,
2013-11-29 14:07:00,47.5,21.8,30.42,NW,315,1.7,1.7,36,0.00,CLR,,0.00,WeatherDisplay:10.37,2013-11-29 19:07:00,
2013-11-29 14:09:00,47.5,21.8,30.42,NW,315,1.7,1.7,36,0.00,CLR,,0.00,WeatherDisplay:10.37,2013-11-29 19:09:00,
2013-11-29 14:10:00,47.7,22.0,30.42,NW,315,1.7,1.7,36,0.00,CLR,,0.00,WeatherDisplay:10.37,2013-11-29 19:10:00,
2013-11-29 14:12:00,47.1,21.5,30.33,East,90,1.7,0.0,36,0.00,CLR,,0.00,WeatherDisplay:10.37,2013-11-29 19:12:00,
2013-11-29 14:13:00,47.1,21.5,30.33,East,90,1.7,0.0,36,0.00,CLR,,0.00,WeatherDisplay:10.37,2013-11-29 19:13:00,
2013-11-29 14:15:00,46.8,21.8,30.33,SE,135,1.7,0.0,37,0.00,CLR,,0.00,WeatherDisplay:10.37,2013-11-29 19:15:00,
2013-11-29 14:17:00,46.8,21.2,30.38,East,90,1.7,1.7,36,0.00,CLR,,0.00,WeatherDisplay:10.37,2013-11-29 19:17:00,
2013-11-29 14:18:00,46.8,21.2,30.38,East,90,1.7,1.7,36,0.00,CLR,,0.00,WeatherDisplay:10.37,2013-11-29 19:18:00,
2013-11-29 14:19:00,45.3,19.9,30.38,NNW,337,1.7,1.7,36,0.00,CLR,,0.00,WeatherDisplay:10.37,2013-11-29 19:19:00,
2013-11-29 14:20:00,45.3,19.9,30.35,NNW,337,1.7,1.7,36,0.00,CLR,,0.00,WeatherDisplay:10.37,2013-11-29 19:20:00,
2013-11-29 14:21:00,44.8,19.4,30.35,NNW,337,1.7,0.0,36,0.00,CLR,,0.00,WeatherDisplay:10.37,2013-11-29 19:21:00,
2013-11-29 14:23:00,44.8,19.4,30.35,NNW,337,1.2,0.0,36,0.00,CLR,,0.00,WeatherDisplay:10.37,2013-11-29 19:23:00,
2013-11-29 14:24:00,44.8,19.4,30.35,NNW,337,0.0,0.3,36,0.00,CLR,,0.00,WeatherDisplay:10.37,2013-11-29 19:24:00,
2013-11-29 14:26:00,45.0,20.2,30.36,NNW,337,0.3,0.3,37,0.00,CLR,,0.00,WeatherDisplay:10.37,2013-11-29 19:26:00,
2013-11-29 14:28:00,45.3,20.5,30.36,South,180,0.3,0.0,37,0.00,CLR,,0.00,WeatherDisplay:10.37,2013-11-29 19:28:00,
2013-11-29 14:30:00,45.7,20.9,30.38,SE,135,0.3,0.0,37,0.00,CLR,,0.00,WeatherDisplay:10.37,2013-11-29 19:30:00,
2013-11-29 14:31:00,45.7,20.9,30.40,NW,315,0.3,0.0,37,0.00,CLR,,0.00,WeatherDisplay:10.37,2013-11-29 19:31:00,
2013-11-29 14:32:00,45.5,20.7,30.40,NW,315,0.3,2.4,37,0.00,CLR,,0.00,WeatherDisplay:10.37,2013-11-29 19:32:00,
2013-11-29 14:35:00,44.1,19.4,30.37,SW,225,2.4,2.4,37,0.00,CLR,,0.00,WeatherDisplay:10.37,2013-11-29 19:35:00,
2013-11-29 14:36:00,44.1,19.4,30.37,West,270,2.4,2.4,37,0.00,CLR,,0.00,WeatherDisplay:10.37,2013-11-29 19:36:00,
2013-11-29 14:37:00,43.2,18.6,30.37,West,270,2.4,0.0,37,0.00,CLR,,0.00,WeatherDisplay:10.37,2013-11-29 19:37:00,
2013-11-29 14:38:00,43.2,18.6,30.37,West,270,2.4,0.0,37,0.00,CLR,,0.00,WeatherDisplay:10.37,2013-11-29 19:38:00,
2013-11-29 14:40:00,42.4,18.0,30.38,WSW,247,2.4,0.0,37,0.00,CLR,,0.00,WeatherDisplay:10.37,2013-11-29 19:40:00,
2013-11-29 14:42:00,41.9,17.5,30.40,North,0,2.4,0.0,37,0.00,CLR,,0.00,WeatherDisplay:10.37,2013-11-29 19:42:00,
2013-11-29 14:43:00,41.9,17.5,30.40,North,0,2.4,2.6,37,0.00,CLR,,0.00,WeatherDisplay:10.37,2013-11-29 19:43:00,
2013-11-29 14:44:00,41.9,17.5,30.40,North,0,2.6,2.6,37,0.00,CLR,,0.00,WeatherDisplay:10.37,2013-11-29 19:44:00,
2013-11-29 14:47:00,40.8,16.5,30.41,ESE,112,2.6,0.0,37,0.00,CLR,,0.00,WeatherDisplay:10.37,2013-11-29 19:47:00,
2013-11-29 14:49:00,39.9,15.7,30.41,ENE,67,2.6,0.0,37,0.00,CLR,,0.00,WeatherDisplay:10.37,2013-11-29 19:49:00,
2013-11-29 14:50:00,39.9,15.7,30.38,ENE,67,2.6,0.0,37,0.00,CLR,,0.00,WeatherDisplay:10.37,2013-11-29 19:50:00,
2013-11-29 14:51:00,39.0,14.9,30.38,SSE,157,2.6,0.0,37,0.00,CLR,,0.00,WeatherDisplay:10.37,2013-11-29 19:51:00,
2013-11-29 14:53:00,38.3,14.3,30.32,SW,225,2.6,0.0,37,0.00,CLR,,0.00,WeatherDisplay:10.37,2013-11-29 19:53:00,
2013-11-29 14:54:00,38.3,14.3,30.38,SW,225,2.6,0.0,37,0.00,CLR,,0.00,WeatherDisplay:10.37,2013-11-29 19:54:00,
2013-11-29 14:55:00,37.8,13.8,30.38,NNW,337,2.6,0.0,37,0.00,CLR,,0.00,WeatherDisplay:10.37,2013-11-29 19:55:00,
2013-11-29 14:57:00,37.2,12.7,30.37,North,0,2.6,2.6,36,0.00,CLR,,0.00,WeatherDisplay:10.37,2013-11-29 19:57:00,
2013-11-29 14:58:00,37.2,12.7,30.37,North,0,2.6,2.6,36,0.00,CLR,,0.00,WeatherDisplay:10.37,2013-11-29 19:58:00,
2013-11-29 14:59:00,36.9,12.4,30.37,North,0,2.6,2.6,36,0.00,CLR,,0.00,WeatherDisplay:10.37,2013-11-29 19:59:00,
2013-11-29 15:03:00,36.5,12.7,30.35,ENE,67,2.6,0.0,37,0.00,CLR,,0.00,WeatherDisplay:10.37,2013-11-29 20:03:00,
2013-11-29 15:04:00,36.5,12.7,30.35,ENE,67,2.6,0.0,37,0.00,CLR,,0.00,WeatherDisplay:10.37,2013-11-29 20:04:00,
2013-11-29 15:05:00,36.3,13.1,30.34,ENE,67,2.6,0.0,38,0.00,CLR,,0.00,WeatherDisplay:10.37,2013-11-29 20:05:00,
2013-11-29 15:06:00,36.3,13.1,30.42,ENE,67,2.6,0.0,38,0.00,CLR,,0.00,WeatherDisplay:10.37,2013-11-29 20:06:00,
2013-11-29 15:07:00,36.1,12.9,30.42,NE,45,2.6,0.0,38,0.00,CLR,,0.00,WeatherDisplay:10.37,2013-11-29 20:07:00,
2013-11-29 15:08:00,36.1,12.3,30.42,NE,45,2.6,0.0,37,0.00,CLR,,0.00,WeatherDisplay:10.37,2013-11-29 20:08:00,
2013-11-29 15:10:00,36.0,12.2,30.40,NE,45,2.6,0.0,37,0.00,CLR,,0.00,WeatherDisplay:10.37,2013-11-29 20:10:00,
2013-11-29 15:11:00,35.8,12.0,30.40,NE,45,2.6,0.0,37,0.00,CLR,,0.00,WeatherDisplay:10.37,2013-11-29 20:11:00,
2013-11-29 15:13:00,35.6,11.2,30.37,NE,45,2.6,0.0,36,0.00,CLR,,0.00,WeatherDisplay:10.37,2013-11-29 20:13:00,
2013-11-29 15:15:00,35.4,11.1,30.40,NE,45,2.6,0.0,36,0.00,CLR,,0.00,WeatherDisplay:10.37,2013-11-29 20:15:00,
2013-11-29 15:18:00,35.1,10.7,30.42,ENE,67,2.6,0.0,36,0.00,CLR,,0.00,WeatherDisplay:10.37,2013-11-29 20:18:00,
2013-11-29 15:19:00,34.9,10.6,30.42,ENE,67,2.6,0.0,36,0.00,CLR,,0.00,WeatherDisplay:10.37,2013-11-29 20:19:00,
2013-11-29 15:21:00,34.9,10.6,30.40,ENE,67,2.6,0.0,36,0.00,CLR,,0.00,WeatherDisplay:10.37,2013-11-29 20:21:00,
2013-11-29 15:22:00,34.9,10.6,30.38,SE,135,2.3,0.0,36,0.00,CLR,,0.00,WeatherDisplay:10.37,2013-11-29 20:22:00,
2013-11-29 15:24:00,34.5,10.3,30.41,SE,135,1.2,0.0,36,0.00,CLR,,0.00,WeatherDisplay:10.37,2013-11-29 20:24:00,
2013-11-29 15:25:00,34.5,10.3,30.41,SE,135,1.2,1.2,36,0.00,CLR,,0.00,WeatherDisplay:10.37,2013-11-29 20:25:00,
2013-11-29 15:26:00,34.5,10.3,30.38,South,180,1.2,1.2,36,0.00,CLR,,0.00,WeatherDisplay:10.37,2013-11-29 20:26:00,
2013-11-29 15:27:00,34.2,10.6,30.38,South,180,1.2,1.2,37,0.00,CLR,,0.00,WeatherDisplay:10.37,2013-11-29 20:27:00,
2013-11-29 15:28:00,34.2,10.6,30.39,SSE,157,1.2,1.2,37,0.00,CLR,,0.00,WeatherDisplay:10.37,2013-11-29 20:28:00,
2013-11-29 15:29:00,33.8,10.2,30.39,NE,45,1.2,0.0,37,0.00,CLR,,0.00,WeatherDisplay:10.37,2013-11-29 20:29:00,
2013-11-29 15:30:00,33.8,10.2,30.32,NE,45,1.2,0.0,37,0.00,CLR,,0.00,WeatherDisplay:10.37,2013-11-29 20:30:00,
2013-11-29 15:31:00,33.6,10.1,30.32,NE,45,1.2,0.0,37,0.00,CLR,,0.00,WeatherDisplay:10.37,2013-11-29 20:31:00,
2013-11-29 15:32:00,33.6,10.1,30.39,NE,45,1.2,0.0,37,0.00,CLR,,0.00,WeatherDisplay:10.37,2013-11-29 20:32:00,
2013-11-29 15:33:00,33.4,9.9,30.39,WSW,247,1.2,0.0,37,0.00,CLR,,0.00,WeatherDisplay:10.37,2013-11-29 20:33:00,
2013-11-29 15:34:00,33.4,9.3,30.39,WSW,247,1.2,0.0,36,0.00,CLR,,0.00,WeatherDisplay:10.37,2013-11-29 20:34:00,
2013-11-29 15:35:00,33.3,9.1,30.39,ENE,67,1.2,1.2,36,0.00,CLR,,0.00,WeatherDisplay:10.37,2013-11-29 20:35:00,
2013-11-29 15:37:00,33.3,9.8,30.37,North,0,1.2,1.2,37,0.00,CLR,,0.00,WeatherDisplay:10.37,2013-11-29 20:37:00,
2013-11-29 15:38:00,33.3,9.1,30.37,North,0,1.2,1.2,36,0.00,CLR,,0.00,WeatherDisplay:10.37,2013-11-29 20:38:00,
2013-11-29 15:39:00,33.1,9.0,30.37,North,0,1.2,0.0,36,0.00,CLR,,0.00,WeatherDisplay:10.37,2013-11-29 20:39:00,
2013-11-29 15:41:00,32.9,8.8,30.45,ENE,67,1.2,0.0,36,0.00,CLR,,0.00,WeatherDisplay:10.37,2013-11-29 20:41:00,
2013-11-29 15:43:00,32.7,8.7,30.45,ESE,112,1.2,0.0,36,0.00,CLR,,0.00,WeatherDisplay:10.37,2013-11-29 20:43:00,
2013-11-29 15:44:00,32.7,8.0,30.40,ESE,112,1.2,0.0,35,0.00,CLR,,0.00,WeatherDisplay:10.37,2013-11-29 20:44:00,
2013-11-29 15:45:00,32.5,7.9,30.40,ESE,112,1.2,0.0,35,0.00,CLR,,0.00,WeatherDisplay:10.37,2013-11-29 20:45:00,
2013-11-29 15:46:00,32.5,8.5,30.36,ESE,112,1.2,0.0,36,0.00,CLR,,0.00,WeatherDisplay:10.37,2013-11-29 20:46:00,
2013-11-29 15:47:00,32.5,8.5,30.36,ESE,112,1.2,0.0,36,0.00,CLR,,0.00,WeatherDisplay:10.37,2013-11-29 20:47:00,
2013-11-29 15:49:00,32.4,8.3,30.40,ESE,112,1.2,0.0,36,0.00,CLR,,0.00,WeatherDisplay:10.37,2013-11-29 20:49:00,
2013-11-29 15:50:00,32.4,8.3,30.38,East,90,1.2,0.0,36,0.00,CLR,,0.00,WeatherDisplay:10.37,2013-11-29 20:50:00,
2013-11-29 15:52:00,32.2,7.6,30.35,East,90,1.2,0.0,35,0.00,CLR,,0.00,WeatherDisplay:10.37,2013-11-29 20:52:00,
2013-11-29 15:54:00,32.2,7.6,30.34,SW,225,1.2,0.0,35,0.00,CLR,,0.00,WeatherDisplay:10.37,2013-11-29 20:54:00,
2013-11-29 15:55:00,32.0,7.4,30.34,SW,225,1.2,0.0,35,0.00,CLR,,0.00,WeatherDisplay:10.37,2013-11-29 20:55:00,
2013-11-29 15:56:00,32.0,7.4,30.44,SSE,157,1.2,0.0,35,0.00,CLR,,0.00,WeatherDisplay:10.37,2013-11-29 20:56:00,
2013-11-29 15:57:00,32.0,7.4,30.44,SSE,157,1.2,0.0,35,0.00,CLR,,0.00,WeatherDisplay:10.37,2013-11-29 20:57:00,
2013-11-29 16:00:00,32.0,8.0,30.43,SSE,157,1.2,0.0,36,0.00,CLR,,0.00,WeatherDisplay:10.37,2013-11-29 21:00:00,
2013-11-29 16:01:00,31.8,7.9,30.43,NE,45,1.2,0.0,36,0.00,CLR,,0.00,WeatherDisplay:10.37,2013-11-29 21:01:00,
2013-11-29 16:02:00,31.8,7.9,30.43,NE,45,1.2,0.0,36,0.00,CLR,,0.00,WeatherDisplay:10.37,2013-11-29 21:02:00,
2013-11-29 16:04:00,31.6,7.7,30.37,WNW,292,1.2,0.0,36,0.00,CLR,,0.00,WeatherDisplay:10.37,2013-11-29 21:04:00,
2013-11-29 16:05:00,31.6,7.7,30.37,WNW,292,1.2,0.0,36,0.00,CLR,,0.00,WeatherDisplay:10.37,2013-11-29 21:05:00,
2013-11-29 16:07:00,31.5,7.5,30.38,WNW,292,1.2,0.0,36,0.00,CLR,,0.00,WeatherDisplay:10.37,2013-11-29 21:07:00,
2013-11-29 16:09:00,31.5,7.5,30.32,WNW,292,1.2,0.0,36,0.00,CLR,,0.00,WeatherDisplay:10.37,2013-11-29 21:09:00,
2013-11-29 16:10:00,31.5,7.5,30.32,WNW,292,1.2,0.0,36,0.00,CLR,,0.00,WeatherDisplay:10.37,2013-11-29 21:10:00,
2013-11-29 16:11:00,31.5,6.9,30.33,WNW,292,1.2,0.0,35,0.00,CLR,,0.00,WeatherDisplay:10.37,2013-11-29 21:11:00,
2013-11-29 16:13:00,31.3,6.1,30.35,SSE,157,1.2,0.0,34,0.00,CLR,,0.00,WeatherDisplay:10.37,2013-11-29 21:13:00,
2013-11-29 16:15:00,31.3,6.1,30.34,NE,45,1.2,0.0,34,0.00,CLR,,0.00,WeatherDisplay:10.37,2013-11-29 21:15:00,
2013-11-29 16:16:00,31.3,6.1,30.34,SSE,157,1.2,0.0,34,0.00,CLR,,0.00,WeatherDisplay:10.37,2013-11-29 21:16:00,
2013-11-29 16:18:00,31.1,6.0,30.33,SSE,157,1.2,0.0,34,0.00,CLR,,0.00,WeatherDisplay:10.37,2013-11-29 21:18:00,
2013-11-29 16:19:00,31.1,6.0,30.34,SSE,157,1.2,0.0,34,0.00,CLR,,0.00,WeatherDisplay:10.37,2013-11-29 21:19:00,
2013-11-29 16:20:00,31.1,6.0,30.34,SSE,157,1.2,0.0,34,0.00,CLR,,0.00,WeatherDisplay:10.37,2013-11-29 21:20:00,
2013-11-29 16:21:00,31.1,6.0,30.34,SSE,157,1.2,0.0,34,0.00,CLR,,0.00,WeatherDisplay:10.37,2013-11-29 21:21:00,
2013-11-29 16:24:00,30.7,6.9,30.34,ENE,67,0.0,0.0,36,0.00,CLR,,0.00,WeatherDisplay:10.37,2013-11-29 21:24:00,
2013-11-29 16:25:00,30.7,6.9,30.35,East,90,0.0,0.0,36,0.00,CLR,,0.00,WeatherDisplay:10.37,2013-11-29 21:25:00,
2013-11-29 16:26:00,30.7,6.9,30.35,East,90,0.0,0.0,36,0.00,CLR,,0.00,WeatherDisplay:10.37,2013-11-29 21:26:00,
2013-11-29 16:29:00,30.7,6.9,30.35,ENE,67,0.0,0.0,36,0.00,CLR,,0.00,WeatherDisplay:10.37,2013-11-29 21:29:00,
2013-11-29 16:31:00,30.6,6.7,30.35,ESE,112,0.0,0.0,36,0.00,CLR,,0.00,WeatherDisplay:10.37,2013-11-29 21:31:00,
2013-11-29 16:32:00,30.6,6.7,30.35,ESE,112,0.0,0.0,36,0.00,CLR,,0.00,WeatherDisplay:10.37,2013-11-29 21:32:00,
2013-11-29 16:33:00,30.6,6.7,30.45,ENE,67,0.0,0.0,36,0.00,CLR,,0.00,WeatherDisplay:10.37,2013-11-29 21:33:00,
2013-11-29 16:34:00,30.6,6.7,30.45,ENE,67,0.0,0.0,36,0.00,CLR,,0.00,WeatherDisplay:10.37,2013-11-29 21:34:00,
2013-11-29 16:37:00,30.6,6.7,30.33,ENE,67,0.0,0.0,36,0.00,CLR,,0.00,WeatherDisplay:10.37,2013-11-29 21:37:00,
2013-11-29 16:38:00,30.6,6.7,30.33,ENE,67,0.0,0.0,36,0.00,CLR,,0.00,WeatherDisplay:10.37,2013-11-29 21:38:00,
2013-11-29 16:39:00,30.6,6.7,30.32,ENE,67,0.0,0.0,36,0.00,CLR,,0.00,WeatherDisplay:10.37,2013-11-29 21:39:00,
2013-11-29 16:40:00,30.6,6.7,30.32,ENE,67,0.0,0.0,36,0.00,CLR,,0.00,WeatherDisplay:10.37,2013-11-29 21:40:00,
2013-11-29 16:42:00,30.6,6.1,30.37,East,90,0.0,0.0,35,0.00,CLR,,0.00,WeatherDisplay:10.37,2013-11-29 21:42:00,
2013-11-29 16:44:00,30.6,6.1,30.37,ENE,67,0.0,0.0,35,0.00,CLR,,0.00,WeatherDisplay:10.37,2013-11-29 21:44:00,
2013-11-29 16:45:00,30.6,6.1,30.37,ENE,67,0.0,0.0,35,0.00,CLR,,0.00,WeatherDisplay:10.37,2013-11-29 21:45:00,
2013-11-29 16:47:00,30.4,5.9,30.40,NE,45,0.0,0.0,35,0.00,CLR,,0.00,WeatherDisplay:10.37,2013-11-29 21:47:00,
2013-11-29 16:48:00,30.4,5.9,30.40,NE,45,0.0,0.0,35,0.00,CLR,,0.00,WeatherDisplay:10.37,2013-11-29 21:48:00,
2013-11-29 16:49:00,30.4,5.9,30.43,NE,45,0.0,0.0,35,0.00,CLR,,0.00,WeatherDisplay:10.37,2013-11-29 21:49:00,
2013-11-29 16:50:00,30.4,5.9,30.43,NE,45,0.0,0.0,35,0.00,CLR,,0.00,WeatherDisplay:10.37,2013-11-29 21:50:00,
2013-11-29 16:52:00,30.4,5.9,30.38,ENE,67,0.0,0.0,35,0.00,CLR,,0.00,WeatherDisplay:10.37,2013-11-29 21:52:00,
2013-11-29 16:54:00,30.4,5.9,30.32,NE,45,0.0,0.0,35,0.00,CLR,,0.00,WeatherDisplay:10.37,2013-11-29 21:54:00,
2013-11-29 16:55:00,30.4,5.9,30.33,NE,45,0.0,0.0,35,0.00,CLR,,0.00,WeatherDisplay:10.37,2013-11-29 21:55:00,
2013-11-29 16:57:00,30.4,5.9,30.37,East,90,0.0,0.0,35,0.00,CLR,,0.00,WeatherDisplay:10.37,2013-11-29 21:57:00,
2013-11-29 17:00:00,30.2,5.2,30.34,NE,45,0.0,0.0,34,0.00,CLR,,0.00,WeatherDisplay:10.37,2013-11-29 22:00:00,
2013-11-29 17:01:00,30.2,5.8,30.35,NE,45,0.0,0.0,35,0.00,CLR,,0.00,WeatherDisplay:10.37,2013-11-29 22:01:00,
2013-11-29 17:04:00,30.2,5.8,30.46,NNE,22,0.0,0.0,35,0.00,CLR,,0.00,WeatherDisplay:10.37,2013-11-29 22:04:00,
2013-11-29 17:05:00,30.2,5.8,30.46,NNE,22,0.0,0.0,35,0.00,CLR,,0.00,WeatherDisplay:10.37,2013-11-29 22:05:00,
2013-11-29 17:06:00,30.2,5.8,30.38,NNW,337,0.0,0.0,35,0.00,CLR,,0.00,WeatherDisplay:10.37,2013-11-29 22:06:00,
2013-11-29 17:07:00,28.6,4.3,30.38,NNW,337,0.0,0.0,35,0.00,CLR,,0.00,WeatherDisplay:10.37,2013-11-29 22:07:00,
2013-11-29 17:09:00,28.6,4.3,30.41,NNW,337,0.0,0.0,35,0.00,CLR,,0.00,WeatherDisplay:10.37,2013-11-29 22:09:00,
2013-11-29 17:10:00,28.6,4.3,30.36,NNW,337,0.0,0.0,35,0.00,CLR,,0.00,WeatherDisplay:10.37,2013-11-29 22:10:00,
2013-11-29 17:11:00,28.6,5.0,30.41,NNW,337,0.0,0.0,36,0.00,CLR,,0.00,WeatherDisplay:10.37,2013-11-29 22:11:00,
2013-11-29 17:12:00,28.6,5.0,30.41,NNW,337,0.0,0.0,36,0.00,CLR,,0.00,WeatherDisplay:10.37,2013-11-29 22:12:00,
2013-11-29 17:14:00,28.6,4.3,30.37,NNW,337,0.0,0.0,35,0.00,CLR,,0.00,WeatherDisplay:10.37,2013-11-29 22:14:00,
2013-11-29 17:15:00,28.6,4.3,30.35,NNW,337,0.0,0.0,35,0.00,CLR,,0.00,WeatherDisplay:10.37,2013-11-29 22:15:00,
2013-11-29 17:16:00,28.6,4.3,30.35,NNE,22,0.0,0.0,35,0.00,CLR,,0.00,WeatherDisplay:10.37,2013-11-29 22:16:00,
2013-11-29 17:17:00,28.6,4.3,30.40,NNE,22,0.0,0.0,35,0.00,CLR,,0.00,WeatherDisplay:10.37,2013-11-29 22:17:00,
2013-11-29 17:20:00,28.6,3.7,30.35,ESE,112,0.0,0.0,34,0.00,CLR,,0.00,WeatherDisplay:10.37,2013-11-29 22:20:00,
2013-11-29 17:21:00,28.6,3.7,30.35,SSE,157,0.0,0.0,34,0.00,CLR,,0.00,WeatherDisplay:10.37,2013-11-29 22:21:00,
2013-11-29 17:22:00,28.8,3.9,30.35,SSE,157,0.0,0.0,34,0.00,CLR,,0.00,WeatherDisplay:10.37,2013-11-29 22:22:00,
2013-11-29 17:23:00,28.8,3.9,30.35,SSE,157,0.0,0.0,34,0.00,CLR,,0.00,WeatherDisplay:10.37,2013-11-29 22:23:00,
2013-11-29 17:24:00,28.8,3.9,30.35,SSE,157,0.0,0.0,34,0.00,CLR,,0.00,WeatherDisplay:10.37,2013-11-29 22:24:00,
2013-11-29 17:25:00,28.8,3.9,30.39,NE,45,0.0,0.0,34,0.00,CLR,,0.00,WeatherDisplay:10.37,2013-11-29 22:25:00,
2013-11-29 17:26:00,28.8,3.9,30.39,NE,45,0.0,0.0,34,0.00,CLR,,0.00,WeatherDisplay:10.37,2013-11-29 22:26:00,
2013-11-29 17:29:00,28.8,3.9,30.40,NNE,22,0.0,0.0,34,0.00,CLR,,0.00,WeatherDisplay:10.37,2013-11-29 22:29:00,
2013-11-29 17:31:00,28.8,3.9,30.41,NNE,22,0.0,0.0,34,0.00,CLR,,0.00,WeatherDisplay:10.37,2013-11-29 22:31:00,
2013-11-29 17:32:00,28.8,3.9,30.41,NNE,22,0.0,0.0,34,0.00,CLR,,0.00,WeatherDisplay:10.37,2013-11-29 22:32:00,
2013-11-29 17:34:00,28.8,3.9,30.41,NE,45,0.0,0.0,34,0.00,CLR,,0.00,WeatherDisplay:10.37,2013-11-29 22:34:00,
2013-11-29 17:35:00,28.8,3.9,30.33,NE,45,0.0,0.0,34,0.00,CLR,,0.00,WeatherDisplay:10.37,2013-11-29 22:35:00,
2013-11-29 17:36:00,28.9,4.0,30.33,NE,45,0.0,0.0,34,0.00,CLR,,0.00,WeatherDisplay:10.37,2013-11-29 22:36:00,
2013-11-29 17:37:00,28.9,3.4,30.33,ENE,67,0.0,0.0,33,0.00,CLR,,0.00,WeatherDisplay:10.37,2013-11-29 22:37:00,
2013-11-29 17:38:00,28.9,3.4,30.33,NNE,22,0.0,0.0,33,0.00,CLR,,0.00,WeatherDisplay:10.37,2013-11-29 22:38:00,
2013-11-29 17:39:00,28.9,3.4,30.39,NNE,22,0.0,0.0,33,0.00,CLR,,0.00,WeatherDisplay:10.37,2013-11-29 22:39:00,
2013-11-29 17:40:00,28.9,3.4,30.39,NNE,22,0.0,0.0,33,0.00,CLR,,0.00,WeatherDisplay:10.37,2013-11-29 22:40:00,
2013-11-29 17:42:00,28.9,3.4,30.32,ENE,67,0.0,0.0,33,0.00,CLR,,0.00,WeatherDisplay:10.37,2013-11-29 22:42:00,
2013-11-29 17:43:00,28.9,4.0,30.33,ENE,67,0.0,0.0,34,0.00,CLR,,0.00,WeatherDisplay:10.37,2013-11-29 22:43:00,
2013-11-29 17:44:00,28.9,4.0,30.33,ENE,67,0.0,0.0,34,0.00,CLR,,0.00,WeatherDisplay:10.37,2013-11-29 22:44:00,
2013-11-29 17:45:00,28.9,4.0,30.38,ENE,67,0.0,0.0,34,0.00,CLR,,0.00,WeatherDisplay:10.37,2013-11-29 22:45:00,
2013-11-29 17:46:00,28.9,4.0,30.38,ENE,67,0.0,0.0,34,0.00,CLR,,0.00,WeatherDisplay:10.37,2013-11-29 22:46:00,
2013-11-29 17:48:00,28.9,4.7,30.33,ENE,67,0.0,0.0,35,0.00,CLR,,0.00,WeatherDisplay:10.37,2013-11-29 22:48:00,
2013-11-29 17:49:00,28.9,4.7,30.33,ENE,67,0.0,0.0,35,0.00,CLR,,0.00,WeatherDisplay:10.37,2013-11-29 22:49:00,
2013-11-29 17:50:00,28.9,4.7,30.33,ENE,67,0.0,0.0,35,0.00,CLR,,0.00,WeatherDisplay:10.37,2013-11-29 22:50:00,
2013-11-29 17:52:00,28.9,4.7,30.34,ESE,112,0.0,0.0,35,0.00,CLR,,0.00,WeatherDisplay:10.37,2013-11-29 22:52:00,
2013-11-29 17:53:00,28.9,4.7,30.38,East,90,0.0,0.0,35,0.00,CLR,,0.00,WeatherDisplay:10.37,2013-11-29 22:53:00,
2013-11-29 17:54:00,28.9,4.7,30.38,East,90,0.0,0.0,35,0.00,CLR,,0.00,WeatherDisplay:10.37,2013-11-29 22:54:00,
2013-11-29 17:55:00,28.9,4.7,30.38,ENE,67,0.0,0.0,35,0.00,CLR,,0.00,WeatherDisplay:10.37,2013-11-29 22:55:00,
2013-11-29 17:57:00,28.9,4.7,30.37,ESE,112,0.0,0.0,35,0.00,CLR,,0.00,WeatherDisplay:10.37,2013-11-29 22:57:00,
2013-11-29 17:58:00,29.1,4.8,30.37,ESE,112,0.0,0.0,35,0.00,CLR,,0.00,WeatherDisplay:10.37,2013-11-29 22:58:00,
2013-11-29 18:00:00,29.1,4.8,30.35,ESE,112,0.0,0.0,35,0.00,CLR,,0.00,WeatherDisplay:10.37,2013-11-29 23:00:00,
2013-11-29 18:01:00,29.1,4.8,30.36,ENE,67,0.0,0.0,35,0.00,CLR,,0.00,WeatherDisplay:10.37,2013-11-29 23:01:00,
2013-11-29 18:02:00,29.1,4.8,30.44,ENE,67,0.0,0.0,35,0.00,CLR,,0.00,WeatherDisplay:10.37,2013-11-29 23:02:00,
2013-11-29 18:03:00,29.1,4.8,30.44,ENE,67,0.0,0.0,35,0.00,CLR,,0.00,WeatherDisplay:10.37,2013-11-29 23:03:00,
2013-11-29 18:04:00,29.1,4.8,30.35,ENE,67,0.0,0.0,35,0.00,CLR,,0.00,WeatherDisplay:10.37,2013-11-29 23:04:00,
2013-11-29 18:06:00,29.1,4.8,30.35,ENE,67,0.0,0.0,35,0.00,CLR,,0.00,WeatherDisplay:10.37,2013-11-29 23:06:00,
2013-11-29 18:07:00,29.3,5.0,30.37,ENE,67,0.0,0.0,35,0.00,CLR,,0.00,WeatherDisplay:10.37,2013-11-29 23:07:00,
2013-11-29 18:09:00,29.3,4.4,30.36,West,270,0.0,0.0,34,0.00,CLR,,0.00,WeatherDisplay:10.37,2013-11-29 23:09:00,
2013-11-29 18:11:00,29.3,5.0,30.36,ESE,112,0.0,0.0,35,0.00,CLR,,0.00,WeatherDisplay:10.37,2013-11-29 23:11:00,
2013-11-29 18:12:00,29.3,5.0,30.36,ESE,112,0.0,0.0,35,0.00,CLR,,0.00,WeatherDisplay:10.37,2013-11-29 23:12:00,
2013-11-29 18:13:00,29.3,5.0,30.36,SE,135,0.0,0.0,35,0.00,CLR,,0.00,WeatherDisplay:10.37,2013-11-29 23:13:00,
2013-11-29 18:14:00,29.3,5.6,30.36,SE,135,0.0,0.0,36,0.00,CLR,,0.00,WeatherDisplay:10.37,2013-11-29 23:14:00,
2013-11-29 18:17:00,29.3,5.6,30.37,SE,135,0.0,0.0,36,0.00,CLR,,0.00,WeatherDisplay:10.37,2013-11-29 23:17:00,
2013-11-29 18:19:00,29.3,5.6,30.37,SE,135,0.0,0.0,36,0.00,CLR,,0.00,WeatherDisplay:10.37,2013-11-29 23:19:00,
2013-11-29 18:20:00,29.3,5.0,30.37,SE,135,0.0,0.0,35,0.00,CLR,,0.00,WeatherDisplay:10.37,2013-11-29 23:20:00,
2013-11-29 18:23:00,29.5,5.1,30.37,ENE,67,0.0,0.0,35,0.00,CLR,,0.00,WeatherDisplay:10.37,2013-11-29 23:23:00,
2013-11-29 18:24:00,29.5,5.1,30.37,ENE,67,0.0,0.0,35,0.00,CLR,,0.00,WeatherDisplay:10.37,2013-11-29 23:24:00,
2013-11-29 18:25:00,29.5,5.1,30.37,ENE,67,0.0,0.0,35,0.00,CLR,,0.00,WeatherDisplay:10.37,2013-11-29 23:25:00,
2013-11-29 18:26:00,29.5,5.1,30.38,ENE,67,0.0,0.0,35,0.00,CLR,,0.00,WeatherDisplay:10.37,2013-11-29 23:26:00,
2013-11-29 18:28:00,29.5,5.1,30.38,East,90,0.0,0.0,35,0.00,CLR,,0.00,WeatherDisplay:10.37,2013-11-29 23:28:00,
2013-11-29 18:29:00,29.5,5.1,30.39,East,90,0.0,0.0,35,0.00,CLR,,0.00,WeatherDisplay:10.37,2013-11-29 23:29:00,
2013-11-29 18:31:00,29.5,5.1,30.39,East,90,0.0,0.0,35,0.00,CLR,,0.00,WeatherDisplay:10.37,2013-11-29 23:31:00,
2013-11-29 18:32:00,29.5,5.1,30.40,East,90,0.0,0.0,35,0.00,CLR,,0.00,WeatherDisplay:10.37,2013-11-29 23:32:00,
2013-11-29 18:33:00,29.7,5.3,30.40,East,90,0.0,0.0,35,0.00,CLR,,0.00,WeatherDisplay:10.37,2013-11-29 23:33:00,
2013-11-29 18:34:00,29.7,5.3,30.40,East,90,0.0,0.0,35,0.00,CLR,,0.00,WeatherDisplay:10.37,2013-11-29 23:34:00,
2013-11-29 18:37:00,29.7,5.3,30.39,ENE,67,0.0,0.0,35,0.00,CLR,,0.00,WeatherDisplay:10.37,2013-11-29 23:37:00,
2013-11-29 18:39:00,29.7,5.3,30.42,ENE,67,0.0,0.0,35,0.00,CLR,,0.00,WeatherDisplay:10.37,2013-11-29 23:39:00,
2013-11-29 18:40:00,29.7,5.3,30.42,ESE,112,0.0,0.0,35,0.00,CLR,,0.00,WeatherDisplay:10.37,2013-11-29 23:40:00,
2013-11-29 18:44:00,29.7,5.3,30.34,ESE,112,0.0,0.0,35,0.00,CLR,,0.00,WeatherDisplay:10.37,2013-11-29 23:44:00,
2013-11-29 18:45:00,29.8,4.8,30.34,ESE,112,0.0,0.0,34,0.00,CLR,,0.00,WeatherDisplay:10.37,2013-11-29 23:45:00,
2013-11-29 18:46:00,29.8,4.8,30.34,ESE,112,0.0,0.0,34,0.00,CLR,,0.00,WeatherDisplay:10.37,2013-11-29 23:46:00,
2013-11-29 18:48:00,29.8,5.5,30.40,ESE,112,0.0,0.0,35,0.00,CLR,,0.00,WeatherDisplay:10.37,2013-11-29 23:48:00,
2013-11-29 18:50:00,29.8,5.5,30.39,East,90,0.0,0.0,35,0.00,CLR,,0.00,WeatherDisplay:10.37,2013-11-29 23:50:00,
2013-11-29 18:51:00,29.8,5.5,30.44,East,90,0.0,0.0,35,0.00,CLR,,0.00,WeatherDisplay:10.37,2013-11-29 23:51:00,
2013-11-29 18:52:00,29.8,6.1,30.44,East,90,0.0,0.0,36,0.00,CLR,,0.00,WeatherDisplay:10.37,2013-11-29 23:52:00,
2013-11-29 18:54:00,29.8,6.1,30.39,East,90,0.0,0.0,36,0.00,CLR,,0.00,WeatherDisplay:10.37,2013-11-29 23:54:00,
2013-11-29 18:55:00,26.8,3.4,30.39,East,90,0.0,0.0,36,0.00,CLR,,0.00,WeatherDisplay:10.37,2013-11-29 23:55:00,
2013-11-29 18:56:00,26.8,3.4,30.42,East,90,0.0,0.0,36,0.00,CLR,,0.00,WeatherDisplay:10.37,2013-11-29 23:56:00,
2013-11-29 18:58:00,26.8,3.4,30.38,East,90,0.0,0.0,36,0.00,CLR,,0.00,WeatherDisplay:10.37,2013-11-29 23:58:00,
2013-11-29 18:59:00,27.0,3.5,30.38,East,90,0.0,0.0,36,0.00,CLR,,0.00,WeatherDisplay:10.37,2013-11-29 23:59:00,
2013-11-29 19:00:00,27.0,4.1,30.40,East,90,0.0,0.0,37,0.00,CLR,,0.00,WeatherDisplay:10.37,2013-11-30 00:00:00,
2013-11-29 19:02:00,27.1,4.3,30.40,ENE,67,0.0,0.0,37,0.00,CLR,,0.00,WeatherDisplay:10.37,2013-11-30 00:02:00,
2013-11-29 19:03:00,27.1,4.3,30.35,ENE,67,0.0,0.0,37,0.00,CLR,,0.00,WeatherDisplay:10.37,2013-11-30 00:03:00,
2013-11-29 19:04:00,27.3,3.8,30.35,ENE,67,0.0,0.0,36,0.00,CLR,,0.00,WeatherDisplay:10.37,2013-11-30 00:04:00,
2013-11-29 19:06:00,27.3,3.8,30.40,ENE,67,0.0,0.0,36,0.00,CLR,,0.00,WeatherDisplay:10.37,2013-11-30 00:06:00,
2013-11-29 19:07:00,27.3,3.8,30.42,North,0,0.0,0.0,36,0.00,CLR,,0.00,WeatherDisplay:10.37,2013-11-30 00:07:00,
2013-11-29 19:08:00,27.3,3.2,30.42,North,0,0.0,0.0,35,0.00,CLR,,0.00,WeatherDisplay:10.37,2013-11-30 00:08:00,
2013-11-29 19:09:00,27.7,3.5,30.37,North,0,0.0,0.0,35,0.00,CLR,,0.00,WeatherDisplay:10.37,2013-11-30 00:09:00,
2013-11-29 19:10:00,27.7,3.5,30.37,North,0,0.0,0.0,35,0.00,CLR,,0.00,WeatherDisplay:10.37,2013-11-30 00:10:00,
2013-11-29 19:11:00,27.7,2.9,30.40,North,0,0.0,0.0,34,0.00,CLR,,0.00,WeatherDisplay:10.37,2013-11-30 00:11:00,
2013-11-29 19:13:00,28.0,3.9,30.46,North,0,0.0,0.0,35,0.00,CLR,,0.00,WeatherDisplay:10.37,2013-11-30 00:13:00,
2013-11-29 19:14:00,28.2,4.0,30.46,North,0,0.0,0.0,35,0.00,CLR,,0.00,WeatherDisplay:10.37,2013-11-30 00:14:00,
2013-11-29 19:16:00,28.2,3.4,30.35,North,0,0.0,0.0,34,0.00,CLR,,0.00,WeatherDisplay:10.37,2013-11-30 00:16:00,
2013-11-29 19:18:00,24.8,0.4,30.39,North,0,0.0,0.0,34,0.00,CLR,,0.00,WeatherDisplay:10.37,2013-11-30 00:18:00,
2013-11-29 19:19:00,24.8,0.4,30.42,North,0,0.0,0.0,34,0.00,CLR,,0.00,WeatherDisplay:10.37,2013-11-30 00:19:00,
2013-11-29 19:20:00,25.0,0.5,30.42,North,0,0.0,0.0,34,0.00,CLR,,0.00,WeatherDisplay:10.37,2013-11-30 00:20:00,
2013-11-29 19:22:00,25.2,0.7,30.38,North,0,0.0,0.0,34,0.00,CLR,,0.00,WeatherDisplay:10.37,2013-11-30 00:22:00,
2013-11-29 19:25:00,25.3,0.2,30.38,North,0,0.0,0.0,33,0.00,CLR,,0.00,WeatherDisplay:10.37,2013-11-30 00:25:00,
2013-11-29 19:26:00,25.3,0.2,30.38,North,0,0.0,0.0,33,0.00,CLR,,0.00,WeatherDisplay:10.37,2013-11-30 00:26:00,
2013-11-29 19:27:00,25.3,0.2,30.37,North,0,0.0,0.0,33,0.00,CLR,,0.00,WeatherDisplay:10.37,2013-11-30 00:27:00,
2013-11-29 19:28:00,25.5,0.4,30.37,North,0,0.0,0.0,33,0.00,CLR,,0.00,WeatherDisplay:10.37,2013-11-30 00:28:00,
2013-11-29 19:30:00,25.7,0.5,30.42,East,90,0.0,0.0,33,0.00,CLR,,0.00,WeatherDisplay:10.37,2013-11-30 00:30:00,
2013-11-29 19:31:00,25.7,0.5,30.38,East,90,0.0,0.0,33,0.00,CLR,,0.00,WeatherDisplay:10.37,2013-11-30 00:31:00,
2013-11-29 19:32:00,25.7,0.5,30.38,East,90,0.0,0.0,33,0.00,CLR,,0.00,WeatherDisplay:10.37,2013-11-30 00:32:00,
2013-11-29 19:34:00,25.7,1.2,30.39,SE,135,0.0,0.0,34,0.00,CLR,,0.00,WeatherDisplay:10.37,2013-11-30 00:34:00,
2013-11-29 19:36:00,25.7,1.2,30.32,SE,135,0.0,0.0,34,0.00,CLR,,0.00,WeatherDisplay:10.37,2013-11-30 00:36:00,
2013-11-29 19:37:00,25.7,1.2,30.33,SE,135,0.0,0.0,34,0.00,CLR,,0.00,WeatherDisplay:10.37,2013-11-30 00:37:00,
2013-11-29 19:38:00,25.7,1.2,30.33,SE,135,0.0,0.0,34,0.00,CLR,,0.00,WeatherDisplay:10.37,2013-11-30 00:38:00,
2013-11-29 19:40:00,25.7,0.5,30.37,ESE,112,0.0,0.0,33,0.00,CLR,,0.00,WeatherDisplay:10.37,2013-11-30 00:40:00,
2013-11-29 19:42:00,25.7,1.2,30.40,ESE,112,0.0,0.0,34,0.00,CLR,,0.00,WeatherDisplay:10.37,2013-11-30 00:42:00,
2013-11-29 19:43:00,25.7,1.2,30.44,ESE,112,0.0,0.0,34,0.00,CLR,,0.00,WeatherDisplay:10.37,2013-11-30 00:43:00,
2013-11-29 19:44:00,25.7,1.2,30.44,ESE,112,0.0,0.0,34,0.00,CLR,,0.00,WeatherDisplay:10.37,2013-11-30 00:44:00,
2013-11-29 19:45:00,25.7,0.5,30.35,ESE,112,0.0,0.0,33,0.00,CLR,,0.00,WeatherDisplay:10.37,2013-11-30 00:45:00,
2013-11-29 19:46:00,25.9,0.7,30.35,ESE,112,0.0,0.0,33,0.00,CLR,,0.00,WeatherDisplay:10.37,2013-11-30 00:46:00,
2013-11-29 19:47:00,25.9,1.3,30.40,SSE,157,0.0,0.0,34,0.00,CLR,,0.00,WeatherDisplay:10.37,2013-11-30 00:47:00,
2013-11-29 19:48:00,25.9,1.3,30.40,SSE,157,0.0,0.0,34,0.00,CLR,,0.00,WeatherDisplay:10.37,2013-11-30 00:48:00,
2013-11-29 19:51:00,25.9,1.3,30.33,SSE,157,0.0,0.0,34,0.00,CLR,,0.00,WeatherDisplay:10.37,2013-11-30 00:51:00,
2013-11-29 19:52:00,26.1,1.5,30.33,SSE,157,0.0,0.0,34,0.00,CLR,,0.00,WeatherDisplay:10.37,2013-11-30 00:52:00,
2013-11-29 19:53:00,26.1,1.5,30.32,SSE,157,0.0,0.0,34,0.00,CLR,,0.00,WeatherDisplay:10.37,2013-11-30 00:53:00,
2013-11-29 19:54:00,26.1,2.1,30.32,SSE,157,0.0,0.0,35,0.00,CLR,,0.00,WeatherDisplay:10.37,2013-11-30 00:54:00,
2013-11-29 19:56:00,26.1,1.5,30.42,SSE,157,0.0,0.0,34,0.00,CLR,,0.00,WeatherDisplay:10.37,2013-11-30 00:56:00,
2013-11-29 19:58:00,26.1,1.5,30.37,SSE,157,0.0,0.0,34,0.00,CLR,,0.00,WeatherDisplay:10.37,2013-11-30 00:58:00,
2013-11-29 19:59:00,26.1,1.5,30.37,SSE,157,0.0,0.0,34,0.00,CLR,,0.00,WeatherDisplay:10.37,2013-11-30 00:59:00,
2013-11-29 20:01:00,26.1,0.8,30.37,SSE,157,0.0,0.0,33,0.00,CLR,,0.00,WeatherDisplay:10.37,2013-11-30 01:01:00,
2013-11-29 20:03:00,26.2,1.6,30.35,SSE,157,0.0,0.0,34,0.00,CLR,,0.00,WeatherDisplay:10.37,2013-11-30 01:03:00,
2013-11-29 20:04:00,26.2,1.6,30.35,SSE,157,0.0,0.0,34,0.00,CLR,,0.00,WeatherDisplay:10.37,2013-11-30 01:04:00,
2013-11-29 20:05:00,26.2,1.0,30.35,SE,135,0.0,0.0,33,0.00,CLR,,0.00,WeatherDisplay:10.37,2013-11-30 01:05:00,
2013-11-29 20:07:00,26.2,1.0,30.39,SSE,157,0.0,0.0,33,0.00,CLR,,0.00,WeatherDisplay:10.37,2013-11-30 01:07:00,
2013-11-29 20:08:00,26.2,1.0,30.39,SSE,157,0.0,0.0,33,0.00,CLR,,0.00,WeatherDisplay:10.37,2013-11-30 01:08:00,
2013-11-29 20:09:00,26.4,1.2,30.39,SE,135,0.0,0.0,33,0.00,CLR,,0.00,WeatherDisplay:10.37,2013-11-30 01:09:00,
2013-11-29 20:11:00,26.4,1.8,30.35,ENE,67,0.0,0.0,34,0.00,CLR,,0.00,WeatherDisplay:10.37,2013-11-30 01:11:00,
2013-11-29 20:12:00,23.0,-1.2,30.39,SE,135,0.0,0.0,34,0.00,CLR,,0.00,WeatherDisplay:10.37,2013-11-30 01:12:00,
2013-11-29 20:14:00,23.0,-1.2,30.35,ESE,112,0.0,0.0,34,0.00,CLR,,0.00,WeatherDisplay:10.37,2013-11-30 01:14:00,
2013-11-29 20:15:00,23.0,-1.2,30.35,ESE,112,0.0,0.0,34,0.00,CLR,,0.00,WeatherDisplay:10.37,2013-11-30 01:15:00,
2013-11-29 20:16:00,23.0,-0.6,30.35,ESE,112,0.0,0.0,35,0.00,CLR,,0.00,WeatherDisplay:10.37,2013-11-30 01:16:00,
2013-11-29 20:17:00,23.0,-0.6,30.40,ESE,112,0.0,0.0,35,0.00,CLR,,0.00,WeatherDisplay:10.37,2013-11-30 01:17:00,
2013-11-29 20:18:00,23.0,-0.6,30.40,ESE,112,0.0,0.0,35,0.00,CLR,,0.00,WeatherDisplay:10.37,2013-11-30 01:18:00,
2013-11-29 20:19:00,23.0,-1.2,30.30,SSE,157,0.0,0.0,34,0.00,CLR,,0.00,WeatherDisplay:10.37,2013-11-30 01:19:00,
2013-11-29 20:20:00,23.0,-1.2,30.30,SSE,157,0.0,0.0,34,0.00,CLR,,0.00,WeatherDisplay:10.37,2013-11-30 01:20:00,
2013-11-29 20:21:00,23.0,-1.2,30.31,SSE,157,0.0,0.0,34,0.00,CLR,,0.00,WeatherDisplay:10.37,2013-11-30 01:21:00,
2013-11-29 20:22:00,23.0,-1.2,30.31,NE,45,0.0,0.0,34,0.00,CLR,,0.00,WeatherDisplay:10.37,2013-11-30 01:22:00,
2013-11-29 20:24:00,23.0,-1.2,30.35,SE,135,0.0,1.3,34,0.00,CLR,,0.00,WeatherDisplay:10.37,2013-11-30 01:24:00,
2013-11-29 20:26:00,23.0,-1.2,30.41,SE,135,1.3,0.0,34,0.00,CLR,,0.00,WeatherDisplay:10.37,2013-11-30 01:26:00,
2013-11-29 20:27:00,23.0,-1.2,30.31,SE,135,1.3,0.0,34,0.00,CLR,,0.00,WeatherDisplay:10.37,2013-11-30 01:27:00,
2013-11-29 20:28:00,23.0,-1.2,30.31,SE,135,1.3,0.0,34,0.00,CLR,,0.00,WeatherDisplay:10.37,2013-11-30 01:28:00,
2013-11-29 20:29:00,23.0,-1.9,30.32,SE,135,1.3,0.0,33,0.00,CLR,,0.00,WeatherDisplay:10.37,2013-11-30 01:29:00,
2013-11-29 20:30:00,26.4,1.2,30.32,SE,135,1.3,0.0,33,0.00,CLR,,0.00,WeatherDisplay:10.37,2013-11-30 01:30:00,
2013-11-29 20:32:00,26.4,1.2,30.34,ENE,67,1.3,0.0,33,0.00,CLR,,0.00,WeatherDisplay:10.37,2013-11-30 01:32:00,
2013-11-29 20:33:00,26.2,1.0,30.34,ENE,67,1.3,0.0,33,0.00,CLR,,0.00,WeatherDisplay:10.37,2013-11-30 01:33:00,
2013-11-29 20:34:00,26.2,1.0,30.32,NW,315,1.3,0.0,33,0.00,CLR,,0.00,WeatherDisplay:10.37,2013-11-30 01:34:00,
2013-11-29 20:35:00,26.2,1.0,30.32,SW,225,1.3,0.0,33,0.00,CLR,,0.00,WeatherDisplay:10.37,2013-11-30 01:35:00,
2013-11-29 20:36:00,26.2,1.0,30.32,SW,225,1.3,1.3,33,0.00,CLR,,0.00,WeatherDisplay:10.37,2013-11-30 01:36:00,
2013-11-29 20:37:00,26.2,1.0,30.31,SW,225,1.3,1.3,33,0.00,CLR,,0.00,WeatherDisplay:10.37,2013-11-30 01:37:00,
2013-11-29 20:38:00,26.2,1.0,30.31,SW,225,1.3,1.3,33,0.00,CLR,,0.00,WeatherDisplay:10.37,2013-11-30 01:38:00,
2013-11-29 20:39:00,25.9,0.7,30.31,NE,45,1.3,1.3,33,0.00,CLR,,0.00,WeatherDisplay:10.37,2013-11-30 01:39:00,
2013-11-29 20:40:00,25.9,0.0,30.36,NE,45,1.3,1.3,32,0.00,CLR,,0.00,WeatherDisplay:10.37,2013-11-30 01:40:00,
2013-11-29 20:41:00,25.9,0.0,30.34,NE,45,1.3,1.3,32,0.00,CLR,,0.00,WeatherDisplay:10.37,2013-11-30 01:41:00,
2013-11-29 20:43:00,25.7,-0.1,30.36,NNW,337,1.3,0.0,32,0.00,CLR,,0.00,WeatherDisplay:10.37,2013-11-30 01:43:00,
2013-11-29 20:44:00,25.7,-0.1,30.36,NNW,337,1.3,0.0,32,0.00,CLR,,0.00,WeatherDisplay:10.37,2013-11-30 01:44:00,
2013-11-29 20:45:00,25.7,-0.1,30.36,ENE,67,1.3,0.0,32,0.00,CLR,,0.00,WeatherDisplay:10.37,2013-11-30 01:45:00,
2013-11-29 20:46:00,25.7,-0.1,30.36,ENE,67,1.3,0.0,32,0.00,CLR,,0.00,WeatherDisplay:10.37,2013-11-30 01:46:00,
2013-11-29 20:47:00,25.7,-0.1,30.36,SE,135,1.3,0.0,32,0.00,CLR,,0.00,WeatherDisplay:10.37,2013-11-30 01:47:00,
2013-11-29 20:48:00,25.7,0.5,30.37,SE,135,1.3,0.0,33,0.00,CLR,,0.00,WeatherDisplay:10.37,2013-11-30 01:48:00,
2013-11-29 20:50:00,25.5,0.4,30.35,SE,135,1.3,1.3,33,0.00,CLR,,0.00,WeatherDisplay:10.37,2013-11-30 01:50:00,
2013-11-29 20:51:00,25.5,0.4,30.35,ENE,67,1.3,1.3,33,0.00,CLR,,0.00,WeatherDisplay:10.37,2013-11-30 01:51:00,
2013-11-29 20:52:00,25.5,0.4,30.35,ENE,67,1.3,1.3,33,0.00,CLR,,0.00,WeatherDisplay:10.37,2013-11-30 01:52:00,
2013-11-29 20:53:00,25.5,1.6,30.33,ENE,67,1.3,1.3,35,0.00,CLR,,0.00,WeatherDisplay:10.37,2013-11-30 01:53:00,
2013-11-29 20:56:00,25.5,1.6,30.38,NE,45,1.3,1.3,35,0.00,CLR,,0.00,WeatherDisplay:10.37,2013-11-30 01:56:00,
2013-11-29 20:57:00,25.5,1.6,30.38,NE,45,1.3,0.0,35,0.00,CLR,,0.00,WeatherDisplay:10.37,2013-11-30 01:57:00,
2013-11-29 20:58:00,25.5,1.6,30.38,NE,45,1.3,0.0,35,0.00,CLR,,0.00,WeatherDisplay:10.37,2013-11-30 01:58:00,
2013-11-29 20:59:00,25.5,1.6,30.37,SSE,157,1.3,1.3,35,0.00,CLR,,0.00,WeatherDisplay:10.37,2013-11-30 01:59:00,
2013-11-29 21:01:00,25.5,1.6,30.28,ESE,112,1.3,1.3,35,0.00,CLR,,0.00,WeatherDisplay:10.37,2013-11-30 02:01:00,
2013-11-29 21:02:00,25.5,1.6,30.35,ESE,112,1.3,1.3,35,0.00,CLR,,0.00,WeatherDisplay:10.37,2013-11-30 02:02:00,
2013-11-29 21:06:00,25.3,1.5,30.35,SE,135,1.3,0.0,35,0.00,CLR,,0.00,WeatherDisplay:10.37,2013-11-30 02:06:00,
2013-11-29 21:07:00,25.3,1.5,30.35,SE,135,1.3,0.0,35,0.00,CLR,,0.00,WeatherDisplay:10.37,2013-11-30 02:07:00,
2013-11-29 21:08:00,25.3,1.5,30.40,SE,135,1.3,0.0,35,0.00,CLR,,0.00,WeatherDisplay:10.37,2013-11-30 02:08:00,
2013-11-29 21:10:00,25.3,1.5,30.40,East,90,1.3,1.3,35,0.00,CLR,,0.00,WeatherDisplay:10.37,2013-11-30 02:10:00,
2013-11-29 21:12:00,25.3,1.5,30.35,East,90,1.3,1.3,35,0.00,CLR,,0.00,WeatherDisplay:10.37,2013-11-30 02:12:00,
2013-11-29 21:13:00,25.3,1.5,30.30,North,0,1.3,1.3,35,0.00,CLR,,0.00,WeatherDisplay:10.37,2013-11-30 02:13:00,
2013-11-29 21:17:00,25.3,0.2,30.31,NW,315,1.3,0.0,33,0.00,CLR,,0.00,WeatherDisplay:10.37,2013-11-30 02:17:00,
2013-11-29 21:18:00,25.3,0.2,30.31,NW,315,1.3,0.0,33,0.00,CLR,,0.00,WeatherDisplay:10.37,2013-11-30 02:18:00,
2013-11-29 21:19:00,25.3,0.2,30.31,ENE,67,1.3,0.0,33,0.00,CLR,,0.00,WeatherDisplay:10.37,2013-11-30 02:19:00,
2013-11-29 21:20:00,25.5,1.0,30.40,ENE,67,1.3,0.0,34,0.00,CLR,,0.00,WeatherDisplay:10.37,2013-11-30 02:20:00,
2013-11-29 21:21:00,25.5,1.0,30.40,SE,135,1.3,0.0,34,0.00,CLR,,0.00,WeatherDisplay:10.37,2013-11-30 02:21:00,
2013-11-29 21:22:00,25.5,1.0,30.39,WSW,247,1.2,0.0,34,0.00,CLR,,0.00,WeatherDisplay:10.37,2013-11-30 02:22:00,
2013-11-29 21:23:00,25.5,1.0,30.39,WSW,247,0.0,0.3,34,0.00,CLR,,0.00,WeatherDisplay:10.37,2013-11-30 02:23:00,
2013-11-29 21:24:00,25.5,1.0,30.39,WSW,247,0.0,0.3,34,0.00,CLR,,0.00,WeatherDisplay:10.37,2013-11-30 02:24:00,
2013-11-29 21:25:00,25.5,1.0,30.33,ESE,112,0.3,0.3,34,0.00,CLR,,0.00,WeatherDisplay:10.37,2013-11-30 02:25:00,
2013-11-29 21:27:00,25.5,1.0,30.33,ESE,112,0.3,0.0,34,0.00,CLR,,0.00,WeatherDisplay:10.37,2013-11-30 02:27:00,
2013-11-29 21:28:00,25.5,1.0,30.33,SSE,157,0.3,0.0,34,0.00,CLR,,0.00,WeatherDisplay:10.37,2013-11-30 02:28:00,
2013-11-29 21:29:00,25.5,1.0,30.33,SSE,157,0.3,0.7,34,0.00,CLR,,0.00,WeatherDisplay:10.37,2013-11-30 02:29:00,
2013-11-29 21:31:00,25.5,1.0,30.33,SW,225,0.7,0.7,34,0.00,CLR,,0.00,WeatherDisplay:10.37,2013-11-30 02:31:00,
2013-11-29 21:33:00,25.5,1.0,30.37,WNW,292,1.2,1.2,34,0.00,CLR,,0.00,WeatherDisplay:10.37,2013-11-30 02:33:00,
2013-11-29 21:35:00,25.5,1.0,30.33,WNW,292,1.2,1.2,34,0.00,CLR,,0.00,WeatherDisplay:10.37,2013-11-30 02:35:00,
2013-11-29 21:36:00,25.5,1.0,30.33,SSE,157,1.2,0.0,34,0.00,CLR,,0.00,WeatherDisplay:10.37,2013-11-30 02:36:00,
2013-11-29 21:37:00,25.5,1.0,30.33,SSE,157,1.2,0.0,34,0.00,CLR,,0.00,WeatherDisplay:10.37,2013-11-30 02:37:00,
2013-11-29 21:38:00,25.7,1.2,30.33,SSE,157,1.2,0.0,34,0.00,CLR,,0.00,WeatherDisplay:10.37,2013-11-30 02:38:00,
2013-11-29 21:39:00,25.7,1.8,30.38,SSE,157,1.2,0.0,35,0.00,CLR,,0.00,WeatherDisplay:10.37,2013-11-30 02:39:00,
2013-11-29 21:40:00,25.7,1.8,30.38,SSE,157,1.2,1.2,35,0.00,CLR,,0.00,WeatherDisplay:10.37,2013-11-30 02:40:00,
2013-11-29 21:41:00,25.7,1.8,30.27,ESE,112,1.2,1.2,35,0.00,CLR,,0.00,WeatherDisplay:10.37,2013-11-30 02:41:00,
2013-11-29 21:43:00,25.7,1.8,30.39,ESE,112,1.2,0.0,35,0.00,CLR,,0.00,WeatherDisplay:10.37,2013-11-30 02:43:00,
2013-11-29 21:44:00,25.7,1.8,30.39,ESE,112,1.2,0.0,35,0.00,CLR,,0.00,WeatherDisplay:10.37,2013-11-30 02:44:00,
2013-11-29 21:46:00,25.7,1.8,30.39,SSE,157,1.2,0.0,35,0.00,CLR,,0.00,WeatherDisplay:10.37,2013-11-30 02:46:00,
2013-11-29 21:47:00,25.7,1.2,30.32,SSE,157,1.2,0.0,34,0.00,CLR,,0.00,WeatherDisplay:10.37,2013-11-30 02:47:00,
2013-11-29 21:49:00,25.7,1.2,30.36,South,180,1.2,0.0,34,0.00,CLR,,0.00,WeatherDisplay:10.37,2013-11-30 02:49:00,
2013-11-29 21:50:00,25.7,1.2,30.36,SSE,157,1.2,0.0,34,0.00,CLR,,0.00,WeatherDisplay:10.37,2013-11-30 02:50:00,
2013-11-29 21:51:00,25.7,1.2,30.36,SSE,157,1.2,0.0,34,0.00,CLR,,0.00,WeatherDisplay:10.37,2013-11-30 02:51:00,
2013-11-29 21:52:00,25.7,0.5,30.30,SSE,157,1.2,0.0,33,0.00,CLR,,0.00,WeatherDisplay:10.37,2013-11-30 02:52:00,
2013-11-29 21:54:00,25.7,0.5,30.30,ESE,112,1.2,0.0,33,0.00,CLR,,0.00,WeatherDisplay:10.37,2013-11-30 02:54:00,
2013-11-29 21:55:00,25.7,0.5,30.30,ESE,112,1.2,0.0,33,0.00,CLR,,0.00,WeatherDisplay:10.37,2013-11-30 02:55:00,
2013-11-29 21:57:00,25.5,1.0,30.31,ENE,67,1.2,0.0,34,0.00,CLR,,0.00,WeatherDisplay:10.37,2013-11-30 02:57:00,
2013-11-29 21:58:00,25.5,1.0,30.31,SSE,157,1.2,0.0,34,0.00,CLR,,0.00,WeatherDisplay:10.37,2013-11-30 02:58:00,
2013-11-29 22:00:00,25.5,1.0,30.31,SE,135,1.2,0.0,34,0.00,CLR,,0.00,WeatherDisplay:10.37,2013-11-30 03:00:00,
2013-11-29 22:01:00,25.5,1.0,30.34,ENE,67,1.2,0.0,34,0.00,CLR,,0.00,WeatherDisplay:10.37,2013-11-30 03:01:00,
2013-11-29 22:02:00,25.5,1.0,30.34,ENE,67,1.2,0.0,34,0.00,CLR,,0.00,WeatherDisplay:10.37,2013-11-30 03:02:00,
2013-11-29 22:03:00,25.5,1.0,30.35,ENE,67,1.2,0.0,34,0.00,CLR,,0.00,WeatherDisplay:10.37,2013-11-30 03:03:00,
2013-11-29 22:04:00,25.5,1.0,30.35,ENE,67,1.2,0.0,34,0.00,CLR,,0.00,WeatherDisplay:10.37,2013-11-30 03:04:00,
2013-11-29 22:06:00,25.5,1.0,30.34,ENE,67,1.2,0.0,34,0.00,CLR,,0.00,WeatherDisplay:10.37,2013-11-30 03:06:00,
2013-11-29 22:07:00,25.5,1.0,30.36,ENE,67,1.2,0.0,34,0.00,CLR,,0.00,WeatherDisplay:10.37,2013-11-30 03:07:00,
2013-11-29 22:09:00,25.5,1.0,30.36,SE,135,1.2,1.2,34,0.00,CLR,,0.00,WeatherDisplay:10.37,2013-11-30 03:09:00,
2013-11-29 22:10:00,25.5,1.0,30.36,ESE,112,1.2,1.2,34,0.00,CLR,,0.00,WeatherDisplay:10.37,2013-11-30 03:10:00,
2013-11-29 22:12:00,25.5,1.0,30.33,ESE,112,1.2,1.2,34,0.00,CLR,,0.00,WeatherDisplay:10.37,2013-11-30 03:12:00,
2013-11-29 22:14:00,25.5,1.0,30.33,ESE,112,1.2,1.2,34,0.00,CLR,,0.00,WeatherDisplay:10.37,2013-11-30 03:14:00,
2013-11-29 22:15:00,25.5,1.0,30.34,SE,135,1.2,1.2,34,0.00,CLR,,0.00,WeatherDisplay:10.37,2013-11-30 03:15:00,
2013-11-29 22:16:00,25.5,1.0,30.34,SE,135,1.2,0.0,34,0.00,CLR,,0.00,WeatherDisplay:10.37,2013-11-30 03:16:00,
2013-11-29 22:17:00,25.5,1.0,30.33,ENE,67,1.2,0.0,34,0.00,CLR,,0.00,WeatherDisplay:10.37,2013-11-30 03:17:00,
2013-11-29 22:18:00,25.5,1.0,30.33,ENE,67,1.2,1.2,34,0.00,CLR,,0.00,WeatherDisplay:10.37,2013-11-30 03:18:00,
2013-11-29 22:19:00,25.5,1.0,30.33,ENE,67,1.2,1.2,34,0.00,CLR,,0.00,WeatherDisplay:10.37,2013-11-30 03:19:00,
2013-11-29 22:21:00,25.5,1.6,30.29,East,90,1.2,1.2,35,0.00,CLR,,0.00,WeatherDisplay:10.37,2013-11-30 03:21:00,
2013-11-29 22:23:00,25.5,1.6,30.27,South,180,1.2,0.0,35,0.00,CLR,,0.00,WeatherDisplay:10.37,2013-11-30 03:23:00,
2013-11-29 22:24:00,25.7,1.8,30.27,South,180,0.0,0.0,35,0.00,CLR,,0.00,WeatherDisplay:10.37,2013-11-30 03:24:00,
2013-11-29 22:26:00,25.7,1.8,30.34,ESE,112,0.0,0.0,35,0.00,CLR,,0.00,WeatherDisplay:10.37,2013-11-30 03:26:00,
2013-11-29 22:27:00,25.9,1.9,30.34,ESE,112,0.0,0.0,35,0.00,CLR,,0.00,WeatherDisplay:10.37,2013-11-30 03:27:00,
2013-11-29 22:29:00,25.9,1.3,30.29,SSE,157,0.0,0.0,34,0.00,CLR,,0.00,WeatherDisplay:10.37,2013-11-30 03:29:00,
2013-11-29 22:31:00,25.9,1.3,30.29,NE,45,0.0,0.0,34,0.00,CLR,,0.00,WeatherDisplay:10.37,2013-11-30 03:31:00,
2013-11-29 22:32:00,25.9,1.9,30.29,NE,45,0.0,0.0,35,0.00,CLR,,0.00,WeatherDisplay:10.37,2013-11-30 03:32:00,
2013-11-29 22:33:00,25.7,1.8,30.29,NE,45,0.0,0.0,35,0.00,CLR,,0.00,WeatherDisplay:10.37,2013-11-30 03:33:00,
2013-11-29 22:34:00,25.7,1.8,30.29,NE,45,0.0,0.0,35,0.00,CLR,,0.00,WeatherDisplay:10.37,2013-11-30 03:34:00,
2013-11-29 22:35:00,25.9,1.9,30.29,ESE,112,0.0,0.0,35,0.00,CLR,,0.00,WeatherDisplay:10.37,2013-11-30 03:35:00,
2013-11-29 22:37:00,25.9,1.9,30.29,ENE,67,0.0,0.0,35,0.00,CLR,,0.00,WeatherDisplay:10.37,2013-11-30 03:37:00,
2013-11-29 22:38:00,25.9,1.3,30.30,ENE,67,0.0,0.0,34,0.00,CLR,,0.00,WeatherDisplay:10.37,2013-11-30 03:38:00,
2013-11-29 22:40:00,25.9,0.7,30.29,SE,135,0.0,0.0,33,0.00,CLR,,0.00,WeatherDisplay:10.37,2013-11-30 03:40:00,
2013-11-29 22:41:00,25.9,0.7,30.29,SE,135,0.0,0.0,33,0.00,CLR,,0.00,WeatherDisplay:10.37,2013-11-30 03:41:00,
2013-11-29 22:42:00,25.9,0.7,30.29,East,90,0.0,0.0,33,0.00,CLR,,0.00,WeatherDisplay:10.37,2013-11-30 03:42:00,
2013-11-29 22:44:00,25.9,0.7,30.35,ENE,67,0.0,0.0,33,0.00,CLR,,0.00,WeatherDisplay:10.37,2013-11-30 03:44:00,
2013-11-29 22:45:00,25.9,0.7,30.35,NE,45,0.0,0.0,33,0.00,CLR,,0.00,WeatherDisplay:10.37,2013-11-30 03:45:00,
2013-11-29 22:46:00,25.9,0.7,30.38,NE,45,0.0,0.0,33,0.00,CLR,,0.00,WeatherDisplay:10.37,2013-11-30 03:46:00,
2013-11-29 22:47:00,25.9,1.3,30.38,SSE,157,0.0,0.0,34,0.00,CLR,,0.00,WeatherDisplay:10.37,2013-11-30 03:47:00,
2013-11-29 22:49:00,25.9,1.3,30.38,SE,135,0.7,0.0,34,0.00,CLR,,0.00,WeatherDisplay:10.37,2013-11-30 03:49:00,
2013-11-29 22:52:00,25.7,1.2,30.37,ENE,67,1.2,1.2,34,0.00,CLR,,0.00,WeatherDisplay:10.37,2013-11-30 03:52:00,
2013-11-29 22:54:00,25.7,1.2,30.32,ESE,112,1.2,0.0,34,0.00,CLR,,0.00,WeatherDisplay:10.37,2013-11-30 03:54:00,
2013-11-29 22:56:00,25.7,1.2,30.32,ESE,112,1.2,0.0,34,0.00,CLR,,0.00,WeatherDisplay:10.37,2013-11-30 03:56:00,
2013-11-29 22:58:00,25.7,1.8,30.33,East,90,1.2,0.0,35,0.00,CLR,,0.00,WeatherDisplay:10.37,2013-11-30 03:58:00,
2013-11-29 22:59:00,25.7,1.8,30.32,NE,45,1.2,0.0,35,0.00,CLR,,0.00,WeatherDisplay:10.37,2013-11-30 03:59:00,
2013-11-29 23:01:00,25.5,1.6,30.27,NE,45,1.2,0.0,35,0.00,CLR,,0.00,WeatherDisplay:10.37,2013-11-30 04:01:00,
2013-11-29 23:02:00,25.5,1.6,30.32,South,180,1.2,0.0,35,0.00,CLR,,0.00,WeatherDisplay:10.37,2013-11-30 04:02:00,
2013-11-29 23:03:00,25.5,1.6,30.32,South,180,1.2,1.2,35,0.00,CLR,,0.00,WeatherDisplay:10.37,2013-11-30 04:03:00,
2013-11-29 23:04:00,25.5,1.0,30.27,ESE,112,1.2,1.2,34,0.00,CLR,,0.00,WeatherDisplay:10.37,2013-11-30 04:04:00,
2013-11-29 23:05:00,25.5,1.0,30.27,ESE,112,1.2,0.0,34,0.00,CLR,,0.00,WeatherDisplay:10.37,2013-11-30 04:05:00,
2013-11-29 23:07:00,25.5,1.0,30.27,ESE,112,1.2,0.0,34,0.00,CLR,,0.00,WeatherDisplay:10.37,2013-11-30 04:07:00,
2013-11-29 23:08:00,25.5,1.0,30.27,ESE,112,1.2,0.0,34,0.00,CLR,,0.00,WeatherDisplay:10.37,2013-11-30 04:08:00,
2013-11-29 23:09:00,25.5,1.0,30.27,ESE,112,1.2,1.2,34,0.00,CLR,,0.00,WeatherDisplay:10.37,2013-11-30 04:09:00,
2013-11-29 23:11:00,25.5,1.6,30.28,West,270,1.2,1.2,35,0.00,CLR,,0.00,WeatherDisplay:10.37,2013-11-30 04:11:00,
2013-11-29 23:13:00,25.5,1.6,30.38,NE,45,1.2,0.0,35,0.00,CLR,,0.00,WeatherDisplay:10.37,2013-11-30 04:13:00,
2013-11-29 23:14:00,25.5,1.6,30.38,NE,45,1.2,0.0,35,0.00,CLR,,0.00,WeatherDisplay:10.37,2013-11-30 04:14:00,
2013-11-29 23:15:00,25.5,1.6,30.31,SSW,202,1.2,0.0,35,0.00,CLR,,0.00,WeatherDisplay:10.37,2013-11-30 04:15:00,
2013-11-29 23:16:00,25.5,1.6,30.31,SSW,202,1.2,1.2,35,0.00,CLR,,0.00,WeatherDisplay:10.37,2013-11-30 04:16:00,
2013-11-29 23:18:00,25.5,1.6,30.33,SSE,157,1.2,0.0,35,0.00,CLR,,0.00,WeatherDisplay:10.37,2013-11-30 04:18:00,
2013-11-29 23:19:00,25.5,1.6,30.28,WSW,247,1.2,0.0,35,0.00,CLR,,0.00,WeatherDisplay:10.37,2013-11-30 04:19:00,
2013-11-29 23:21:00,25.7,1.8,30.28,WSW,247,1.2,1.2,35,0.00,CLR,,0.00,WeatherDisplay:10.37,2013-11-30 04:21:00,
2013-11-29 23:22:00,25.7,1.8,30.27,WSW,247,1.2,1.2,35,0.00,CLR,,0.00,WeatherDisplay:10.37,2013-11-30 04:22:00,
2013-11-29 23:23:00,25.5,1.6,30.27,ESE,112,1.2,1.2,35,0.00,CLR,,0.00,WeatherDisplay:10.37,2013-11-30 04:23:00,
2013-11-29 23:25:00,25.5,1.6,30.34,ESE,112,1.2,0.0,35,0.00,CLR,,0.00,WeatherDisplay:10.37,2013-11-30 04:25:00,
2013-11-29 23:26:00,25.5,1.6,30.34,East,90,1.2,0.0,35,0.00,CLR,,0.00,WeatherDisplay:10.37,2013-11-30 04:26:00,
2013-11-29 23:27:00,25.5,1.6,30.34,East,90,1.2,0.0,35,0.00,CLR,,0.00,WeatherDisplay:10.37,2013-11-30 04:27:00,
2013-11-29 23:28:00,25.7,2.4,30.33,East,90,1.2,0.0,36,0.00,CLR,,0.00,WeatherDisplay:10.37,2013-11-30 04:28:00,
2013-11-29 23:30:00,25.7,2.4,30.31,SW,225,1.2,0.0,36,0.00,CLR,,0.00,WeatherDisplay:10.37,2013-11-30 04:30:00,
2013-11-29 23:32:00,25.7,2.4,30.31,ESE,112,1.2,1.2,36,0.00,CLR,,0.00,WeatherDisplay:10.37,2013-11-30 04:32:00,
2013-11-29 23:33:00,25.7,2.4,30.30,ESE,112,1.2,1.2,36,0.00,CLR,,0.00,WeatherDisplay:10.37,2013-11-30 04:33:00,
2013-11-29 23:34:00,25.7,2.4,30.30,SSW,202,1.2,0.0,36,0.00,CLR,,0.00,WeatherDisplay:10.37,2013-11-30 04:34:00,
2013-11-29 23:35:00,25.7,1.8,30.31,SSW,202,1.2,0.0,35,0.00,CLR,,0.00,WeatherDisplay:10.37,2013-11-30 04:35:00,
2013-11-29 23:37:00,25.9,1.9,30.31,NNW,337,1.2,0.0,35,0.00,CLR,,0.00,WeatherDisplay:10.37,2013-11-30 04:37:00,
2013-11-29 23:38:00,25.9,1.9,30.29,ESE,112,1.2,1.2,35,0.00,CLR,,0.00,WeatherDisplay:10.37,2013-11-30 04:38:00,
2013-11-29 23:40:00,26.1,2.1,30.29,NNE,22,1.2,0.0,35,0.00,CLR,,0.00,WeatherDisplay:10.37,2013-11-30 04:40:00,
2013-11-29 23:41:00,25.9,1.9,30.29,NNE,22,1.2,0.0,35,0.00,CLR,,0.00,WeatherDisplay:10.37,2013-11-30 04:41:00,
2013-11-29 23:42:00,25.9,1.9,30.30,NNE,22,1.2,0.0,35,0.00,CLR,,0.00,WeatherDisplay:10.37,2013-11-30 04:42:00,
2013-11-29 23:43:00,25.9,1.9,30.30,NNE,22,1.2,0.0,35,0.00,CLR,,0.00,WeatherDisplay:10.37,2013-11-30 04:43:00,
2013-11-29 23:44:00,25.9,1.9,30.30,ENE,67,1.2,0.0,35,0.00,CLR,,0.00,WeatherDisplay:10.37,2013-11-30 04:44:00,
2013-11-29 23:46:00,26.1,2.1,30.35,SSE,157,1.2,0.0,35,0.00,CLR,,0.00,WeatherDisplay:10.37,2013-11-30 04:46:00,
2013-11-29 23:47:00,26.1,2.1,30.35,SSE,157,1.2,1.2,35,0.00,CLR,,0.00,WeatherDisplay:10.37,2013-11-30 04:47:00,
2013-11-29 23:48:00,26.1,2.1,30.35,SSE,157,1.2,0.0,35,0.00,CLR,,0.00,WeatherDisplay:10.37,2013-11-30 04:48:00,
2013-11-29 23:49:00,26.1,2.1,30.35,SSE,157,1.2,0.0,35,0.00,CLR,,0.00,WeatherDisplay:10.37,2013-11-30 04:49:00,
2013-11-29 23:52:00,26.1,2.7,30.25,NE,45,1.2,0.0,36,0.00,CLR,,0.00,WeatherDisplay:10.37,2013-11-30 04:52:00,
2013-11-29 23:54:00,26.1,2.7,30.36,SSE,157,1.2,1.2,36,0.00,CLR,,0.00,WeatherDisplay:10.37,2013-11-30 04:54:00,
2013-11-29 23:55:00,26.1,2.7,30.36,SSW,202,1.2,1.2,36,0.00,CLR,,0.00,WeatherDisplay:10.37,2013-11-30 04:55:00,
2013-11-29 23:56:00,26.1,2.7,30.26,SSW,202,1.2,1.3,36,0.00,CLR,,0.00,WeatherDisplay:10.37,2013-11-30 04:56:00,
2013-11-29 23:57:00,25.9,2.5,30.26,ESE,112,1.2,1.3,36,0.00,CLR,,0.00,WeatherDisplay:10.37,2013-11-30 04:57:00,
2013-11-29 23:58:00,25.9,1.9,30.27,ESE,112,1.3,1.3,35,0.00,CLR,,0.00,WeatherDisplay:10.37,2013-11-30 04:58:00,
2013-11-29 23:59:00,25.9,1.9,30.27,ESE,112,1.3,1.3,35,0.00,CLR,,0.00,WeatherDisplay:10.37,2013-11-30 04:59:00,